Sigfox identifier Datetime Temperature Humidity SNR
003C5572 2019-04-12 12:35:04 21.1 17 21.1
003C5572 2019-04-12 12:03:28 21 16 21.2
003C5572 2019-04-12 11:31:48 21.1 17 22.3
003C5572 2019-04-12 11:00:07 21.1 18 22.3
003C5572 2019-04-12 10:28:27 21 17 22.4
003C5572 2019-04-12 09:56:51 20.9 18 22.5
003C5572 2019-04-12 09:25:12 20.9 17 22.5
003C5572 2019-04-12 08:53:33 20.8 17 22.5
003C5572 2019-04-12 08:21:55 20.8 17 22.5
003C5572 2019-04-12 07:50:17 20.8 17 22.5
003C5572 2019-04-12 07:18:40 20.9 18 22.5
003C5572 2019-04-12 06:47:02 20.8 18 22.5
003C5572 2019-04-12 06:15:24 20.9 18 23.2
003C5572 2019-04-12 05:43:46 20.9 18 23.2
003C5572 2019-04-12 05:12:07 20.9 18 23.2
003C5572 2019-04-12 04:40:28 20.9 18 23.2
003C5572 2019-04-12 04:08:48 20.9 18 23.1
003C5572 2019-04-12 03:37:10 21 18 23
003C5572 2019-04-12 03:04:58 21 18 22.8
003C5572 2019-04-12 02:33:22 21 18 22.9
003C5572 2019-04-12 02:01:39 21 18 22.8
003C5572 2019-04-12 01:30:00 21.1 18 22.9
003C5572 2019-04-12 00:58:20 21.1 18 22.9
003C5572 2019-04-12 00:26:41 21.2 18 22.7
003C5572 2019-04-11 23:55:03 21.3 18 22.6
003C5572 2019-04-11 23:23:24 21.4 18 22.6
003C5572 2019-04-11 22:51:45 21.4 18 21.7
003C5572 2019-04-11 22:20:06 21.4 18 21.8
003C5572 2019-04-11 21:48:27 21.4 18 21.7
003C5572 2019-04-11 21:16:49 21.4 18 21.6
003C5572 2019-04-11 20:45:12 21.4 18 21.5
003C5572 2019-04-11 20:13:34 21.4 17 21.5
003C5572 2019-04-11 19:41:56 21.3 17 21.6
003C5572 2019-04-11 19:10:18 21.3 17 21.5
003C5572 2019-04-11 18:38:41 21.2 16 21.4
003C5572 2019-04-11 18:07:03 21.2 16 21.4
003C5572 2019-04-11 17:35:26 21.2 16 20.1
003C5572 2019-04-11 17:03:47 21.3 16 20
003C5572 2019-04-11 16:32:09 21.3 17 19.8
003C5572 2019-04-11 16:00:31 21.2 18 19.8
003C5572 2019-04-11 15:28:52 21.1 18 19.8
003C5572 2019-04-11 14:57:14 21 18 20
003C5572 2019-04-11 14:25:37 21 18 20
003C5572 2019-04-11 13:53:59 20.9 18 20.1
003C5572 2019-04-11 13:22:20 20.9 17 21.4
003C5572 2019-04-11 12:50:41 20.8 17 21.6
003C5572 2019-04-11 12:19:01 20.8 17 21.5
003C5572 2019-04-11 11:47:22 20.9 18 21.5
003C5572 2019-04-11 11:15:43 20.8 18 21.6
003C5572 2019-04-11 10:44:03 20.8 18 21.6
003C5572 2019-04-11 10:12:22 20.7 18 21.7
003C5572 2019-04-11 09:09:05 20.7 17 21.7
003C5572 2019-04-11 08:37:26 20.7 17 21.6
003C5572 2019-04-11 08:05:48 20.7 17 21.7
003C5572 2019-04-11 07:34:09 20.7 18 21.5
003C5572 2019-04-11 07:02:29 20.7 18 21.6
003C5572 2019-04-11 06:30:51 20.7 18 21.5
003C5572 2019-04-11 05:59:12 20.7 18 21.5
003C5572 2019-04-11 05:27:33 20.7 18 21.5
003C5572 2019-04-11 04:55:56 20.7 18 21.5
003C5572 2019-04-11 04:24:17 20.8 18 21.5
003C5572 2019-04-11 03:52:37 20.8 18 21.4
003C5572 2019-04-11 03:20:57 20.8 18 21.5
003C5572 2019-04-11 02:49:17 20.8 18 21.6
003C5572 2019-04-11 02:17:37 20.8 18 21.5
003C5572 2019-04-11 01:45:57 20.9 18 21.5
003C5572 2019-04-11 01:14:17 21.1 18 21.5
003C5572 2019-04-11 01:13:03 20.9 18 21.5
003C5572 2019-04-11 00:41:23 20.9 18 21.6
003C5572 2019-04-11 00:09:44 21 18 20.3
003C5572 2019-04-10 23:38:05 21 18 20.3
003C5572 2019-04-10 23:06:27 21 18 20.3
003C5572 2019-04-10 22:34:49 21 18 20.4
003C5572 2019-04-10 22:03:14 21 18 20.5
003C5572 2019-04-10 21:31:33 21 18 20.7
003C5572 2019-04-10 20:59:55 20.9 18 20.7
003C5572 2019-04-10 20:28:17 20.9 18 20.7
003C5572 2019-04-10 19:56:39 20.8 18 20.8
003C5572 2019-04-10 19:25:00 20.8 18 20.7
003C5572 2019-04-10 18:53:22 20.7 18 20.9
003C5572 2019-04-10 18:21:43 20.7 18 21
003C5572 2019-04-10 17:50:05 20.8 18 20.9
003C5572 2019-04-10 17:18:27 20.8 18 20.9
003C5572 2019-04-10 16:46:48 20.8 19 21
003C5572 2019-04-10 16:15:10 20.8 19 21
003C5572 2019-04-10 15:43:31 20.8 19 21
003C5572 2019-04-10 15:11:51 20.9 19 21.2
003C5572 2019-04-10 14:40:13 20.9 19 21.3
003C5572 2019-04-10 14:08:33 20.9 20 21.4
003C5572 2019-04-10 13:36:54 20.8 20 21.6
003C5572 2019-04-10 13:05:16 20.8 20 21.6
003C5572 2019-04-10 12:33:38 20.8 20 21.8
003C5572 2019-04-10 12:01:56 20.8 20 21.6
003C5572 2019-04-10 11:30:16 20.7 20 21.6
003C5572 2019-04-10 10:58:37 20.7 20 21.6
003C5572 2019-04-10 10:26:58 20.7 20 21.7
003C5572 2019-04-10 09:55:19 20.7 21 21.7
003C5572 2019-04-10 09:23:40 20.6 21 21.8
003C5572 2019-04-10 08:52:00 20.5 21 21.7
003C5572 2019-04-10 08:20:17 20.5 22 21.7
003C5572 2019-04-10 07:48:36 20.5 23 21.8
003C5572 2019-04-10 07:16:57 20.6 23 21.7
003C5572 2019-04-10 06:45:17 20.5 23 21.7
003C5572 2019-04-10 06:13:38 20.6 23 21.9
003C5572 2019-04-10 05:41:59 20.6 23 21.9
003C5572 2019-04-10 05:10:19 20.5 23 22
003C5572 2019-04-10 04:38:41 20.5 23 22
003C5572 2019-04-10 04:07:01 20.5 23 22
003C5572 2019-04-10 03:35:22 20.6 24 21.9
003C5572 2019-04-10 03:03:41 20.6 24 21.9
003C5572 2019-04-10 02:32:03 20.7 25 21.9
003C5572 2019-04-10 02:00:23 20.7 25 21.9
003C5572 2019-04-10 01:28:43 20.6 25 21.8
003C5572 2019-04-10 00:57:05 20.6 25 21.6
003C5572 2019-04-10 00:25:27 20.6 26 21.7
003C5572 2019-04-09 23:53:48 20.6 26 21.6
003C5572 2019-04-09 23:22:09 20.7 26 22.5
003C5572 2019-04-09 22:49:57 20.7 27 22.4
003C5572 2019-04-09 22:18:17 20.7 27 22.4
003C5572 2019-04-09 21:46:38 20.7 27 22.5
003C5572 2019-04-09 21:15:01 20.7 27 22.4
003C5572 2019-04-09 20:43:23 20.7 27 22.2
003C5572 2019-04-09 20:11:47 20.7 27 22.2
003C5572 2019-04-09 19:40:10 20.7 27 22.2
003C5572 2019-04-09 19:08:32 20.7 27 22.2
003C5572 2019-04-09 18:36:54 20.7 27 22.1
003C5572 2019-04-09 18:05:15 20.8 27 22.2
003C5572 2019-04-09 17:33:35 20.8 27 22.1
003C5572 2019-04-09 17:01:57 20.8 27 22
003C5572 2019-04-09 16:30:18 20.8 27 22.1
003C5572 2019-04-09 15:58:39 20.9 27 22.1
003C5572 2019-04-09 15:27:00 20.9 27 22.2
003C5572 2019-04-09 14:55:20 20.9 26 22.2
003C5572 2019-04-09 14:23:41 20.9 26 22.2
003C5572 2019-04-09 13:52:03 20.9 26 22.3
003C5572 2019-04-09 13:20:23 20.9 26 22.2
003C5572 2019-04-09 12:48:46 20.9 26 22.3
003C5572 2019-04-09 12:17:09 20.9 26 22.4
003C5572 2019-04-09 11:45:32 20.9 26 22.4
003C5572 2019-04-09 11:13:50 20.9 26 22.5
003C5572 2019-04-09 10:42:13 20.8 26 21.6
003C5572 2019-04-09 10:10:32 20.8 26 21.7
003C5572 2019-04-09 09:38:53 20.8 26 21.8
003C5572 2019-04-09 09:07:14 20.7 26 21.8
003C5572 2019-04-09 08:35:35 20.7 25 21.8
003C5572 2019-04-09 08:03:56 20.7 25 21.9
003C5572 2019-04-09 07:32:18 20.7 25 22
003C5572 2019-04-09 07:00:40 20.7 25 21.9
003C5572 2019-04-09 06:28:59 20.7 25 21.9
003C5572 2019-04-09 05:57:20 20.7 25 22.7
003C5572 2019-04-09 05:25:39 20.7 25 23.5
003C5572 2019-04-09 04:53:58 20.8 25 23.5
003C5572 2019-04-09 04:22:17 20.8 25 23.5
003C5572 2019-04-09 03:50:37 20.8 25 23.4
003C5572 2019-04-09 03:18:56 20.8 25 23.3
003C5572 2019-04-09 02:15:36 20.8 25 23.2
003C5572 2019-04-09 01:43:55 20.8 25 23.1
003C5572 2019-04-09 01:12:13 20.8 25 23.1
003C5572 2019-04-09 00:40:32 20.8 26 23.1
003C5572 2019-04-09 00:08:50 20.8 26 23.1
003C5572 2019-04-08 23:37:08 20.9 26 23
003C5572 2019-04-08 23:05:26 20.9 26 23
003C5572 2019-04-08 22:33:47 20.9 26 22.8
003C5572 2019-04-08 22:02:07 20.9 26 22.7
003C5572 2019-04-08 21:30:26 20.9 26 22.7
003C5572 2019-04-08 20:58:46 21.1 26 22.6
003C5572 2019-04-08 20:57:33 20.9 26 22.6
003C5572 2019-04-08 20:25:54 20.9 26 22.6
003C5572 2019-04-08 19:54:15 20.9 26 22.7
003C5572 2019-04-08 19:22:36 20.9 26 22.6
003C5572 2019-04-08 18:50:56 20.9 26 22.7
003C5572 2019-04-08 18:19:15 20.9 26 22.8
003C5572 2019-04-08 17:47:34 20.9 26 22.9
003C5572 2019-04-08 17:15:55 20.9 26 20.9
003C5572 2019-04-08 16:44:15 20.9 27 20.7
003C5572 2019-04-08 16:12:35 21 27 20.6
003C5572 2019-04-08 15:40:55 21 27 20.6
003C5572 2019-04-08 15:09:16 21 27 20.7
003C5572 2019-04-08 14:37:37 21 26 20.7
003C5572 2019-04-08 14:05:58 21 26 20.7
003C5572 2019-04-08 13:34:20 21 27 20.8
003C5572 2019-04-08 13:02:42 20.9 27 20.7
003C5572 2019-04-08 12:31:04 20.8 26 20.6
003C5572 2019-04-08 11:59:26 20.7 26 20.5
003C5572 2019-04-08 11:27:49 20.7 26 20.6
003C5572 2019-04-08 10:56:09 20.6 25 20.6
003C5572 2019-04-08 10:24:31 20.6 25 20.7
003C5572 2019-04-08 09:52:54 20.5 25 20.7
003C5572 2019-04-08 09:21:16 20.5 25 20.7
003C5572 2019-04-08 08:49:37 20.4 24 20.8
003C5572 2019-04-08 08:17:59 20.3 24 20.8
003C5572 2019-04-08 07:46:20 20.3 23 20.6
003C5572 2019-04-08 07:14:43 20.3 23 20.4
003C5572 2019-04-08 06:43:05 20.3 23 20.4
003C5572 2019-04-08 06:11:28 20.4 23 20.2
003C5572 2019-04-08 05:39:51 20.4 23 20
003C5572 2019-04-08 05:08:14 20.4 23 19.8
003C5572 2019-04-08 04:36:36 20.5 23 19.6
003C5572 2019-04-08 04:04:59 20.5 23 19.5
003C5572 2019-04-08 03:33:22 20.5 23 21.1
003C5572 2019-04-08 03:01:44 20.5 23 21.1
003C5572 2019-04-08 02:30:07 20.5 23 21.2
003C5572 2019-04-08 01:58:29 20.5 23 21.2
003C5572 2019-04-08 01:26:51 20.6 23 21.1
003C5572 2019-04-08 00:55:11 20.6 23 21.3
003C5572 2019-04-08 00:23:34 20.6 23 21.2
003C5572 2019-04-07 23:51:56 20.6 23 21.1
003C5572 2019-04-07 23:20:18 20.6 23 21.1
003C5572 2019-04-07 22:48:40 20.7 23 21.1
003C5572 2019-04-07 22:17:01 20.8 22 21.1
003C5572 2019-04-07 21:45:25 20.8 22 21.2
003C5572 2019-04-07 21:13:48 20.9 22 22.2
003C5572 2019-04-07 20:42:12 20.9 22 22.2
003C5572 2019-04-07 20:10:36 20.9 22 22.2
003C5572 2019-04-07 19:38:59 21 22 22.2
003C5572 2019-04-07 19:07:23 21 22 22.2
003C5572 2019-04-07 18:35:13 21 22 22.3
003C5572 2019-04-07 18:03:38 21 22 22.3
003C5572 2019-04-07 17:32:01 21 22 22.4
003C5572 2019-04-07 17:00:25 20.9 22 22.4
003C5572 2019-04-07 16:28:49 20.9 22 22.6
003C5572 2019-04-07 15:57:13 20.8 22 22.6
003C5572 2019-04-07 15:25:36 20.7 22 22.7
003C5572 2019-04-07 14:53:59 20.6 22 21.7
003C5572 2019-04-07 14:22:21 20.5 22 21.7
003C5572 2019-04-07 13:50:45 20.5 21 21.6
003C5572 2019-04-07 13:19:10 20.5 21 21.5
003C5572 2019-04-07 12:47:30 20.5 21 21.5
003C5572 2019-04-07 12:15:51 20.5 21 21.4
003C5572 2019-04-07 11:44:12 20.4 21 21.3
003C5572 2019-04-07 11:12:33 20.5 21 21.4
003C5572 2019-04-07 10:40:55 20.4 21 21.4
003C5572 2019-04-07 10:09:17 20.4 21 21.3
003C5572 2019-04-07 09:37:38 20.4 21 21.1
003C5572 2019-04-07 09:06:00 20.5 21 21.1
003C5572 2019-04-07 08:34:21 20.5 21 19.6
003C5572 2019-04-07 08:02:44 20.5 21 18.9
003C5572 2019-04-07 07:31:07 20.5 21 19.1
003C5572 2019-04-07 06:59:27 20.5 21 19.1
003C5572 2019-04-07 06:27:48 20.6 21 19.1
003C5572 2019-04-07 05:56:10 20.6 21 19.1
003C5572 2019-04-07 05:24:31 20.6 21 20.7
003C5572 2019-04-07 04:52:53 20.7 21 20.6
003C5572 2019-04-07 04:21:15 20.7 21 20.5
003C5572 2019-04-07 03:49:36 20.7 21 20.3
003C5572 2019-04-07 03:17:58 20.8 21 20.2
003C5572 2019-04-07 02:46:19 20.8 21 21.4
003C5572 2019-04-07 02:14:41 20.9 21 21.4
003C5572 2019-04-07 01:43:02 20.9 21 21.3
003C5572 2019-04-07 01:11:23 20.9 21 21.4
003C5572 2019-04-07 00:39:46 21 21 21.4
003C5572 2019-04-07 00:08:09 21 21 21.4
003C5572 2019-04-06 23:36:30 21.1 21 21.3
003C5572 2019-04-06 23:04:51 21.1 21 21.2
003C5572 2019-04-06 22:33:11 21.2 21 21.3
003C5572 2019-04-06 22:01:33 21.2 21 21.2
003C5572 2019-04-06 21:29:57 21.3 21 21.2
003C5572 2019-04-06 20:58:16 21.3 21 21.3
003C5572 2019-04-06 20:26:38 21.3 21 21.3
003C5572 2019-04-06 19:55:00 21.3 21 21.3
003C5572 2019-04-06 19:23:22 21.3 21 21.2
003C5572 2019-04-06 18:51:45 21.3 21 21.2
003C5572 2019-04-06 18:20:07 21.3 21 21.3
003C5572 2019-04-06 17:48:30 21.3 21 21.4
003C5572 2019-04-06 17:16:51 21.2 21 21.4
003C5572 2019-04-06 16:45:12 21.1 21 21.4
003C5572 2019-04-06 16:13:02 21 21 20.3
003C5572 2019-04-06 15:41:24 20.8 21 20.5
003C5572 2019-04-06 15:09:46 20.7 21 20.7
003C5572 2019-04-06 14:38:06 20.6 21 20.6
003C5572 2019-04-06 14:06:26 20.6 21 18.8
003C5572 2019-04-06 13:34:44 20.6 21 18.9
003C5572 2019-04-06 13:03:04 20.6 21 18.9
003C5572 2019-04-06 12:31:24 20.6 21 18.8
003C5572 2019-04-06 11:59:43 20.6 21 18.7
003C5572 2019-04-06 11:28:03 20.6 21 20.5
003C5572 2019-04-06 10:56:23 20.6 21 20.7
003C5572 2019-04-06 10:24:42 20.5 20 20.8
003C5572 2019-04-06 09:53:03 20.6 20 20.8
003C5572 2019-04-06 09:21:22 20.5 20 21
003C5572 2019-04-06 08:49:40 20.6 20 21
003C5572 2019-04-06 08:17:58 20.6 20 21.1
003C5572 2019-04-06 07:46:18 20.6 20 21.1
003C5572 2019-04-06 07:14:37 20.7 20 21
003C5572 2019-04-06 06:42:57 20.7 20 21.2
003C5572 2019-04-06 06:11:17 20.7 20 21.1
003C5572 2019-04-06 05:39:36 20.8 20 21.2
003C5572 2019-04-06 05:07:56 20.8 20 21.2
003C5572 2019-04-06 04:36:17 20.9 20 21.1
003C5572 2019-04-06 04:04:39 20.9 20 22.2
003C5572 2019-04-06 03:32:59 21 20 22
003C5572 2019-04-06 03:01:19 21 20 22
003C5572 2019-04-06 02:29:40 21.1 20 22
003C5572 2019-04-06 01:58:01 21.1 20 22
003C5572 2019-04-06 01:26:21 21.2 20 22.1
003C5572 2019-04-06 00:54:42 21.3 20 22.1
003C5572 2019-04-06 00:23:02 21.4 19 22.1
003C5572 2019-04-05 23:51:20 21.4 19 22.2
003C5572 2019-04-05 23:19:41 21.6 19 22.2
003C5572 2019-04-05 22:47:59 21.6 19 22.3
003C5572 2019-04-05 22:16:18 21.7 19 21.2
003C5572 2019-04-05 21:44:40 21.8 19 21.2
003C5572 2019-04-05 21:13:00 21.9 19 21.2
003C5572 2019-04-05 20:41:20 21.9 19 21.3
003C5572 2019-04-05 20:09:41 21.9 19 21.2
003C5572 2019-04-05 19:38:04 21.9 19 21.4
003C5572 2019-04-05 19:06:25 21.9 19 21.3
003C5572 2019-04-05 18:34:43 21.7 18 21.4
003C5572 2019-04-05 18:03:03 21.7 18 21.5
003C5572 2019-04-05 17:31:23 21.7 18 21.5
003C5572 2019-04-05 16:59:43 21.7 19 21.7
003C5572 2019-04-05 16:28:03 21.7 20 21.6
003C5572 2019-04-05 15:56:23 21.7 20 21.7
003C5572 2019-04-05 15:24:42 21.5 20 21.8
003C5572 2019-04-05 14:53:02 21.5 21 20.6
003C5572 2019-04-05 14:21:22 21.6 21 20.6
003C5572 2019-04-05 14:20:08 21.3 21 20.5
003C5572 2019-04-05 13:48:28 21.3 22 20.6
003C5572 2019-04-05 13:16:47 21.3 21 20.7
003C5572 2019-04-05 12:45:07 21.3 22 20.8
003C5572 2019-04-05 12:13:29 21.2 22 20.7
003C5572 2019-04-05 11:41:50 21.3 23 20.8
003C5572 2019-04-05 11:10:10 21.2 23 20.7
003C5572 2019-04-05 10:38:31 21.2 23 20.7
003C5572 2019-04-05 10:06:51 21.1 21 20.8
003C5572 2019-04-05 09:35:11 21.1 21 20.9
003C5572 2019-04-05 09:03:32 21 20 21
003C5572 2019-04-05 08:31:54 21 19 20.9
003C5572 2019-04-05 08:00:15 21 19 20.8
003C5572 2019-04-05 07:28:35 21 19 20.6
003C5572 2019-04-05 06:56:56 21.1 19 20.8
003C5572 2019-04-05 06:25:15 21.1 19 20.9
003C5572 2019-04-05 05:53:36 21.1 19 20.9
003C5572 2019-04-05 05:21:55 21.1 19 20.8
003C5572 2019-04-05 04:50:16 21.1 19 21.9
003C5572 2019-04-05 04:18:36 21.2 19 22.8
003C5572 2019-04-05 03:46:56 21.2 19 22.6
003C5572 2019-04-05 03:15:17 21.2 19 23.4
003C5572 2019-04-05 02:43:38 21.3 19 23.4
003C5572 2019-04-05 02:11:58 21.3 19 23.4
003C5572 2019-04-05 01:40:18 21.4 19 23.4
003C5572 2019-04-05 01:08:38 21.4 19 23.3
003C5572 2019-04-05 00:36:58 21.4 19 23.3
003C5572 2019-04-05 00:05:18 21.5 19 23.2
003C5572 2019-04-04 23:33:37 21.5 19 23.2
003C5572 2019-04-04 23:01:56 21.6 19 23.1
003C5572 2019-04-04 22:30:15 21.5 19 23.1
003C5572 2019-04-04 21:58:33 21.6 18 23
003C5572 2019-04-04 21:26:52 21.6 18 22.9
003C5572 2019-04-04 20:55:11 21.6 18 22.9
003C5572 2019-04-04 20:23:30 21.6 18 22.8
003C5572 2019-04-04 19:51:48 21.6 17 22.9
003C5572 2019-04-04 19:20:07 21.5 17 22.8
003C5572 2019-04-04 18:48:26 21.5 17 22.9
003C5572 2019-04-04 18:16:45 21.5 17 22.9
003C5572 2019-04-04 17:45:04 21.6 17 22.9
003C5572 2019-04-04 17:13:22 21.6 18 22.7
003C5572 2019-04-04 16:41:40 21.6 18 22.6
003C5572 2019-04-04 16:09:59 21.5 18 23.4
003C5572 2019-04-04 15:38:17 21.4 19 22.6
003C5572 2019-04-04 15:06:34 21.3 20 21.5
003C5572 2019-04-04 14:34:52 21.3 20 21.6
003C5572 2019-04-04 14:03:09 21.2 20 20.4
003C5572 2019-04-04 13:31:28 21.2 20 20.4
003C5572 2019-04-04 12:59:48 21.1 20 20.4
003C5572 2019-04-04 12:28:07 21.3 20 20.5
003C5572 2019-04-04 12:26:52 21 20 20.5
003C5572 2019-04-04 11:55:10 21.1 20 20.5
003C5572 2019-04-04 11:23:32 21 20 20.5
003C5572 2019-04-04 10:51:47 21 20 20.7
003C5572 2019-04-04 10:20:03 21 20 20.8
003C5572 2019-04-04 09:48:22 21 20 20.8
003C5572 2019-04-04 09:16:42 21 20 21
003C5572 2019-04-04 08:44:59 21 20 21
003C5572 2019-04-04 08:13:18 21 20 21
003C5572 2019-04-04 07:41:37 21 20 20.9
003C5572 2019-04-04 07:09:57 21 20 20.9
003C5572 2019-04-04 06:38:16 21.1 20 20.8
003C5572 2019-04-04 06:06:37 21.1 20 20.8
003C5572 2019-04-04 05:34:54 21.1 20 20.7
003C5572 2019-04-04 05:03:14 21.1 20 20.6
003C5572 2019-04-04 04:31:33 21.2 20 20.7
003C5572 2019-04-04 03:59:52 21.2 20 20.8
003C5572 2019-04-04 03:28:11 21.2 20 20.8
003C5572 2019-04-04 02:56:31 21.3 20 20.9
003C5572 2019-04-04 02:24:51 21.3 20 20.9
003C5572 2019-04-04 01:53:12 21.3 20 20.9
003C5572 2019-04-04 01:21:34 21.4 20 20.8
003C5572 2019-04-04 00:49:55 21.4 19 20.9
003C5572 2019-04-04 00:18:16 21.5 19 20.8
003C5572 2019-04-03 23:46:38 21.6 19 20.7
003C5572 2019-04-03 23:14:59 21.6 19 20.6
003C5572 2019-04-03 22:43:20 21.6 19 20.5
003C5572 2019-04-03 22:11:42 21.7 19 20.5
003C5572 2019-04-03 21:40:03 21.7 19 20.4
003C5572 2019-04-03 21:08:25 21.7 19 20.4
003C5572 2019-04-03 20:36:46 21.7 19 20.3
003C5572 2019-04-03 20:05:08 21.7 18 20.4
003C5572 2019-04-03 19:33:31 21.7 18 20.3
003C5572 2019-04-03 19:01:51 21.7 18 20.4
003C5572 2019-04-03 18:30:13 21.7 18 20.5
003C5572 2019-04-03 17:58:34 21.8 18 20.6
003C5572 2019-04-03 17:26:53 21.9 19 20.7
003C5572 2019-04-03 16:55:13 21.9 20 20.8
003C5572 2019-04-03 16:23:33 21.8 20 20.9
003C5572 2019-04-03 15:51:53 21.7 20 21
003C5572 2019-04-03 15:20:15 21.5 21 21
003C5572 2019-04-03 14:48:35 21.4 21 21
003C5572 2019-04-03 14:16:55 21.3 21 19.5
003C5572 2019-04-03 13:45:16 21.3 21 19.4
003C5572 2019-04-03 13:13:36 21.2 21 19.5
003C5572 2019-04-03 12:41:56 21.2 20 19.4
003C5572 2019-04-03 12:10:16 21.2 21 19.4
003C5572 2019-04-03 11:38:35 21.2 21 19.4
003C5572 2019-04-03 11:06:54 21.1 21 19.5
003C5572 2019-04-03 10:35:16 21 21 19.6
003C5572 2019-04-03 10:03:01 21 22 19.8
003C5572 2019-04-03 09:31:21 20.9 21 19.7
003C5572 2019-04-03 08:59:41 20.8 20 19.7
003C5572 2019-04-03 08:28:00 20.8 19 19.8
003C5572 2019-04-03 07:56:20 20.8 20 21.2
003C5572 2019-04-03 07:24:39 20.8 20 21.2
003C5572 2019-04-03 06:53:00 20.8 20 21.2
003C5572 2019-04-03 06:21:19 20.9 20 21.1
003C5572 2019-04-03 05:49:38 20.8 20 21.1
003C5572 2019-04-03 05:17:58 20.9 20 21.1
003C5572 2019-04-03 04:46:19 20.9 20 21
003C5572 2019-04-03 04:14:40 20.9 19 20.9
003C5572 2019-04-03 03:43:00 20.9 19 20.8
003C5572 2019-04-03 03:11:22 21 19 20.7
003C5572 2019-04-03 02:39:44 21 19 20.7
003C5572 2019-04-03 02:08:05 21 19 20.7
003C5572 2019-04-03 01:36:26 21.1 19 20.6
003C5572 2019-04-03 01:04:46 21.1 19 21.8
003C5572 2019-04-03 00:33:07 21.2 19 21.8
003C5572 2019-04-03 00:01:29 21.2 19 21.8
003C5572 2019-04-02 23:29:50 21.3 19 22.8
003C5572 2019-04-02 22:58:10 21.3 18 22.7
003C5572 2019-04-02 22:26:31 21.3 18 22.7
003C5572 2019-04-02 21:54:52 21.4 18 22.8
003C5572 2019-04-02 21:23:11 21.4 18 22.8
003C5572 2019-04-02 20:51:32 21.4 18 22.8
003C5572 2019-04-02 20:19:58 21.4 18 22.8
003C5572 2019-04-02 19:48:14 21.4 17 22.8
003C5572 2019-04-02 19:16:37 21.4 17 22.8
003C5572 2019-04-02 18:44:55 21.4 17 21.9
003C5572 2019-04-02 18:13:16 21.5 16 21.9
003C5572 2019-04-02 17:41:36 21.5 16 21.9
003C5572 2019-04-02 17:09:57 21.6 17 21.8
003C5572 2019-04-02 16:38:17 21.6 18 21.9
003C5572 2019-04-02 16:06:39 21.6 19 21.8
003C5572 2019-04-02 15:34:55 21.4 20 21.9
003C5572 2019-04-02 15:03:17 21.2 22 22
003C5572 2019-04-02 14:31:36 21.2 23 22.1
003C5572 2019-04-02 13:59:55 21.1 23 22.1
003C5572 2019-04-02 13:28:13 20.9 22 22.1
003C5572 2019-04-02 12:56:31 20.9 22 22.1
003C5572 2019-04-02 12:24:51 20.9 22 22.2
003C5572 2019-04-02 11:53:11 20.9 22 21.2
003C5572 2019-04-02 11:21:31 20.9 21 21.2
003C5572 2019-04-02 10:49:50 20.9 21 21.3
003C5572 2019-04-02 10:18:08 20.8 21 20
003C5572 2019-04-02 09:46:27 20.8 21 20.1
003C5572 2019-04-02 09:14:46 20.8 20 20
003C5572 2019-04-02 08:43:06 20.7 20 20
003C5572 2019-04-02 08:11:25 20.9 19 19.9
003C5572 2019-04-02 08:10:11 20.7 20 20
003C5572 2019-04-02 07:38:31 20.7 19 19.9
003C5572 2019-04-02 07:06:50 20.7 19 19.8
003C5572 2019-04-02 06:35:09 20.7 19 20
003C5572 2019-04-02 06:03:29 20.7 19 20
003C5572 2019-04-02 05:31:48 20.8 19 19.8
003C5572 2019-04-02 05:00:08 20.8 19 21.3
003C5572 2019-04-02 04:28:26 20.8 19 21.3
003C5572 2019-04-02 03:56:45 20.8 19 21.1
003C5572 2019-04-02 03:25:05 20.8 18 21.1
003C5572 2019-04-02 02:53:25 20.9 18 21
003C5572 2019-04-02 02:21:45 20.9 18 20.8
003C5572 2019-04-02 01:50:04 20.9 18 20.8
003C5572 2019-04-02 01:18:22 21 18 20.7
003C5572 2019-04-02 00:46:43 21 18 20.6
003C5572 2019-04-02 00:15:03 21.1 18 20.5
003C5572 2019-04-01 23:43:22 21.1 18 20.4
003C5572 2019-04-01 23:11:43 21.1 17 20.2
003C5572 2019-04-01 22:40:03 21.2 17 20.2
003C5572 2019-04-01 22:08:23 21.2 17 20
003C5572 2019-04-01 21:36:42 21.2 17 20
003C5572 2019-04-01 21:05:02 21.2 17 19.9
003C5572 2019-04-01 20:33:22 21.2 17 20
003C5572 2019-04-01 20:01:42 21.2 17 20.3
003C5572 2019-04-01 19:30:02 21.2 17 20.2
003C5572 2019-04-01 18:58:22 21.2 17 20
003C5572 2019-04-01 18:26:43 21.2 17 20.2
003C5572 2019-04-01 17:55:03 21.3 17 20.3
003C5572 2019-04-01 17:23:23 21.3 18 20.4
003C5572 2019-04-01 16:51:43 21.2 18 20.4
003C5572 2019-04-01 16:20:05 21 18 20.4
003C5572 2019-04-01 15:48:26 21 19 18.8
003C5572 2019-04-01 15:16:46 20.8 19 18.8
003C5572 2019-04-01 14:45:07 20.7 20 19.1
003C5572 2019-04-01 14:13:28 20.6 20 19.1
003C5572 2019-04-01 13:41:49 20.6 21 19.3
003C5572 2019-04-01 13:10:10 20.6 21 19.5
003C5572 2019-04-01 12:38:31 20.6 21 19.6
003C5572 2019-04-01 12:06:52 20.6 22 19.8
003C5572 2019-04-01 11:35:13 20.6 22 19.7
003C5572 2019-04-01 11:03:31 20.6 22 20
003C5572 2019-04-01 10:31:52 20.6 22 20.1
003C5572 2019-04-01 10:00:12 20.6 22 20.2
003C5572 2019-04-01 09:28:33 20.5 22 20.5
003C5572 2019-04-01 08:56:53 20.5 23 20.6
003C5572 2019-04-01 08:25:12 20.5 23 20.6
003C5572 2019-04-01 07:53:32 20.5 23 20.7
003C5572 2019-04-01 07:21:52 20.5 23 20.6
003C5572 2019-04-01 06:50:13 20.5 23 20.3
003C5572 2019-04-01 06:18:33 20.5 23 20.4
003C5572 2019-04-01 05:46:22 20.5 23 20.5
003C5572 2019-04-01 05:14:43 20.5 23 20.5
003C5572 2019-04-01 04:43:04 20.5 23 20.3
003C5572 2019-04-01 04:11:25 20.5 24 20.4
003C5572 2019-04-01 03:39:46 20.5 24 20.5
003C5572 2019-04-01 03:08:05 20.5 24 20.4
003C5572 2019-04-01 02:36:25 20.6 24 20.3
003C5572 2019-04-01 02:04:45 20.6 24 20.3
003C5572 2019-04-01 01:33:04 20.6 24 20.2
003C5572 2019-04-01 01:01:24 20.6 24 20.2
003C5572 2019-04-01 00:29:43 20.6 25 20
003C5572 2019-03-31 23:58:02 20.7 25 19.9
003C5572 2019-03-31 23:26:20 20.7 25 19.9
003C5572 2019-03-31 22:54:41 20.7 25 20.1
003C5572 2019-03-31 22:23:02 20.8 26 19.9
003C5572 2019-03-31 21:51:23 20.8 26 19.8
003C5572 2019-03-31 21:19:44 20.8 26 19.8
003C5572 2019-03-31 20:48:05 20.9 27 19.6
003C5572 2019-03-31 20:16:25 20.9 27 19.6
003C5572 2019-03-31 19:44:46 20.9 27 19.4
003C5572 2019-03-31 19:13:07 20.8 27 19.4
003C5572 2019-03-31 18:41:29 20.8 27 19.6
003C5572 2019-03-31 18:09:51 20.8 27 19.7
003C5572 2019-03-31 17:38:12 20.7 27 19.4
003C5572 2019-03-31 17:06:33 20.6 27 19.4
003C5572 2019-03-31 16:34:53 20.6 27 19.3
003C5572 2019-03-31 16:03:13 20.6 27 19.3
003C5572 2019-03-31 15:31:33 20.6 27 19.2
003C5572 2019-03-31 14:59:54 20.6 27 19.3
003C5572 2019-03-31 14:28:16 20.7 27 19.3
003C5572 2019-03-31 13:56:37 20.6 27 19.2
003C5572 2019-03-31 13:24:57 20.6 27 19.5
003C5572 2019-03-31 12:53:17 20.6 27 19.4
003C5572 2019-03-31 12:21:35 20.6 27 19.5
003C5572 2019-03-31 11:49:55 20.6 27 19.6
003C5572 2019-03-31 11:18:15 20.6 27 19.6
003C5572 2019-03-31 10:46:36 20.6 27 19.6
003C5572 2019-03-31 10:14:55 20.6 27 19.5
003C5572 2019-03-31 09:43:13 20.6 27 19.4
003C5572 2019-03-31 09:11:33 20.6 27 19.4
003C5572 2019-03-31 08:39:48 20.6 27 19.5
003C5572 2019-03-31 08:08:08 20.6 27 19.4
003C5572 2019-03-31 07:36:27 20.6 28 19.5
003C5572 2019-03-31 07:04:47 20.6 28 19.6
003C5572 2019-03-31 06:33:07 20.6 28 19.7
003C5572 2019-03-31 06:01:26 20.6 28 19.6
003C5572 2019-03-31 05:29:45 20.6 27 19.6
003C5572 2019-03-31 04:58:04 20.6 27 19.6
003C5572 2019-03-31 04:26:23 20.6 27 19.9
003C5572 2019-03-31 02:54:44 20.7 27 19.9
003C5572 2019-03-31 02:22:31 20.7 27 20
003C5572 2019-03-31 01:50:53 20.6 27 20.1
003C5572 2019-03-31 01:19:14 20.7 27 19.9
003C5572 2019-03-31 00:47:35 20.7 27 20
003C5572 2019-03-31 00:15:54 20.7 27 20.1
003C5572 2019-03-30 23:44:15 20.7 27 19.9
003C5572 2019-03-30 23:12:35 20.7 27 19.9
003C5572 2019-03-30 22:40:57 20.8 27 19.9
003C5572 2019-03-30 22:09:17 20.8 27 19.8
003C5572 2019-03-30 21:37:39 20.8 27 20
003C5572 2019-03-30 21:06:00 20.8 27 20
003C5572 2019-03-30 20:34:21 20.9 27 20
003C5572 2019-03-30 20:02:40 20.9 27 19.9
003C5572 2019-03-30 19:31:01 20.9 27 20.1
003C5572 2019-03-30 18:59:21 20.9 27 20.1
003C5572 2019-03-30 18:27:43 21 27 20.2
003C5572 2019-03-30 17:56:02 21 27 20.1
003C5572 2019-03-30 17:24:22 21 27 20.1
003C5572 2019-03-30 16:52:44 21 27 20
003C5572 2019-03-30 16:21:05 21 27 20.1
003C5572 2019-03-30 15:49:26 21 27 20
003C5572 2019-03-30 15:17:47 21 27 20.1
003C5572 2019-03-30 14:46:07 20.9 27 20
003C5572 2019-03-30 14:14:27 20.9 27 19.9
003C5572 2019-03-30 13:42:46 20.9 27 19.9
003C5572 2019-03-30 13:11:06 20.8 27 19.9
003C5572 2019-03-30 12:39:27 20.8 27 19.7
003C5572 2019-03-30 12:07:47 20.8 27 19.6
003C5572 2019-03-30 11:36:06 20.8 27 19.5
003C5572 2019-03-30 11:04:25 20.7 27 19.5
003C5572 2019-03-30 10:32:47 20.7 27 19.6
003C5572 2019-03-30 10:01:05 20.7 27 19.8
003C5572 2019-03-30 09:29:25 20.7 27 19.8
003C5572 2019-03-30 08:57:44 20.7 27 19.7
003C5572 2019-03-30 08:26:05 20.7 27 19.8
003C5572 2019-03-30 07:54:26 20.7 27 19.9
003C5572 2019-03-30 07:22:46 20.7 27 20
003C5572 2019-03-30 06:51:08 20.7 27 20.2
003C5572 2019-03-30 06:19:29 20.7 27 20.1
003C5572 2019-03-30 05:47:49 20.7 27 20.1
003C5572 2019-03-30 05:16:09 20.8 27 20.1
003C5572 2019-03-30 04:44:29 20.8 27 20.1
003C5572 2019-03-30 04:12:49 20.8 27 19.9
003C5572 2019-03-30 03:41:08 20.8 27 19.9
003C5572 2019-03-30 03:09:27 20.8 27 19.6
003C5572 2019-03-30 02:37:46 20.8 28 19.8
003C5572 2019-03-30 02:06:05 20.8 28 19.7
003C5572 2019-03-30 01:34:26 20.9 28 19.7
003C5572 2019-03-30 01:02:46 20.9 28 19.5
003C5572 2019-03-30 00:31:06 20.9 28 19.5
003C5572 2019-03-29 23:58:53 21 28 19.4
003C5572 2019-03-29 23:27:14 21 28 19.3
003C5572 2019-03-29 22:55:33 21 28 19.2
003C5572 2019-03-29 22:23:52 21.1 28 19.1
003C5572 2019-03-29 21:52:11 21.1 28 18.9
003C5572 2019-03-29 21:20:30 21.1 28 18.8
003C5572 2019-03-29 20:48:50 21.1 28 18.7
003C5572 2019-03-29 20:17:08 21 28 18.6
003C5572 2019-03-29 19:45:26 21 28 18.1
003C5572 2019-03-29 19:13:47 21 28 18.1
003C5572 2019-03-29 18:42:06 21.1 28 18
003C5572 2019-03-29 18:10:26 21.1 28 17.7
003C5572 2019-03-29 17:38:45 21.1 28 17.5
003C5572 2019-03-29 17:07:04 21.2 28 17.6
003C5572 2019-03-29 16:35:23 21.2 28 17.4
003C5572 2019-03-29 16:03:42 21.2 28 17.2
003C5572 2019-03-29 15:32:01 21.2 27 17.1
003C5572 2019-03-29 15:00:21 21.2 27 17.2
003C5572 2019-03-29 14:28:40 21.2 27 17.2
003C5572 2019-03-29 13:57:02 21.2 27 16.9
003C5572 2019-03-29 13:25:24 21.1 27 16.9
003C5572 2019-03-29 12:53:45 21.1 27 16.7
003C5572 2019-03-29 12:22:06 21 27 16.8
003C5572 2019-03-29 11:50:27 21 26 17
003C5572 2019-03-29 11:18:50 21.1 26 17.3
003C5572 2019-03-29 10:47:10 21.1 26 17.2
003C5572 2019-03-29 10:15:29 21 26 17.4
003C5572 2019-03-29 09:43:48 20.9 26 17.3
003C5572 2019-03-29 09:12:06 20.9 26 17.5
003C5572 2019-03-29 08:40:26 20.9 25 17.5
003C5572 2019-03-29 08:08:45 20.8 25 17.4
003C5572 2019-03-29 07:37:04 20.7 25 17.3
003C5572 2019-03-29 07:05:24 20.7 25 17.3
003C5572 2019-03-29 06:33:44 20.7 25 17.6
003C5572 2019-03-29 06:02:03 20.8 25 19.6
003C5572 2019-03-29 05:30:22 20.8 24 19.6
003C5572 2019-03-29 04:58:41 20.8 24 19.6
003C5572 2019-03-29 04:26:59 20.9 24 19.8
003C5572 2019-03-29 03:55:18 21 24 19.6
003C5572 2019-03-29 03:23:36 21 24 19.8
003C5572 2019-03-29 02:51:54 21.1 24 19.7
003C5572 2019-03-29 02:20:12 21.1 24 19.8
003C5572 2019-03-29 01:48:35 21.1 24 19.8
003C5572 2019-03-29 01:16:49 21.1 24 21.2
003C5572 2019-03-29 00:45:08 21.1 24 21.3
003C5572 2019-03-29 00:13:28 21.1 24 21.1
003C5572 2019-03-28 23:41:49 21.1 24 21.1
003C5572 2019-03-28 23:10:08 21.1 24 21.1
003C5572 2019-03-28 22:38:28 21.2 24 21.1
003C5572 2019-03-28 22:06:48 21.2 24 21.1
003C5572 2019-03-28 21:34:31 21.2 24 21.1
003C5572 2019-03-28 21:02:49 21.2 24 21.2
003C5572 2019-03-28 20:31:09 21.2 24 21.1
003C5572 2019-03-28 19:59:29 21.2 24 21.2
003C5572 2019-03-28 19:27:50 21.2 24 21.3
003C5572 2019-03-28 18:56:10 21.2 23 21.3
003C5572 2019-03-28 18:24:30 21.2 23 21.5
003C5572 2019-03-28 17:52:50 21.2 23 21.3
003C5572 2019-03-28 17:21:10 21.3 23 20
003C5572 2019-03-28 16:49:31 21.3 23 20
003C5572 2019-03-28 16:17:53 21.2 23 20
003C5572 2019-03-28 15:46:14 21.2 23 20
003C5572 2019-03-28 15:14:36 21.2 23 20.1
003C5572 2019-03-28 14:42:59 21.2 22 20
003C5572 2019-03-28 14:11:18 21.1 22 20.1
003C5572 2019-03-28 13:39:38 21.1 22 20.1
003C5572 2019-03-28 13:07:59 21 22 20.2
003C5572 2019-03-28 12:36:20 21 21 18.2
003C5572 2019-03-28 12:04:44 21 21 18.1
003C5572 2019-03-28 11:33:01 21 21 18.4
003C5572 2019-03-28 11:01:20 20.9 20 18.4
003C5572 2019-03-28 10:29:41 20.9 20 20.4
003C5572 2019-03-28 09:57:59 20.9 20 20.2
003C5572 2019-03-28 09:26:20 20.9 20 20.2
003C5572 2019-03-28 08:54:39 20.8 19 20.4
003C5572 2019-03-28 08:22:59 20.8 19 20.4
003C5572 2019-03-28 07:51:21 20.8 19 20.3
003C5572 2019-03-28 07:19:39 20.8 19 20.4
003C5572 2019-03-28 06:47:59 20.7 19 20.6
003C5572 2019-03-28 06:16:19 20.7 19 20.6
003C5572 2019-03-28 05:44:39 20.7 19 20.5
003C5572 2019-03-28 05:12:59 20.8 19 20.5
003C5572 2019-03-28 04:41:19 20.8 18 20.4
003C5572 2019-03-28 04:09:41 20.8 18 20.4
003C5572 2019-03-28 03:38:01 20.8 18 20.3
003C5572 2019-03-28 03:06:20 20.8 18 20.3
003C5572 2019-03-28 02:34:40 20.8 18 20.4
003C5572 2019-03-28 02:03:00 20.8 18 20.2
003C5572 2019-03-28 01:31:24 20.9 17 20.3
003C5572 2019-03-28 00:59:45 20.9 17 21.5
003C5572 2019-03-28 00:28:07 20.9 17 22.6
003C5572 2019-03-27 23:56:28 20.9 17 22.5
003C5572 2019-03-27 23:24:50 20.9 17 23.4
003C5572 2019-03-27 22:53:11 21 16 23.4
003C5572 2019-03-27 22:21:31 21 16 23.4
003C5572 2019-03-27 21:49:54 21 16 23.4
003C5572 2019-03-27 21:18:15 21 16 22.7
003C5572 2019-03-27 20:46:35 21.1 16 22.7
003C5572 2019-03-27 20:14:55 21.1 16 22.8
003C5572 2019-03-27 19:43:15 21.1 15 22.6
003C5572 2019-03-27 19:11:03 21.2 15 22.7
003C5572 2019-03-27 18:39:24 21.2 15 22.7
003C5572 2019-03-27 18:07:46 21.3 15 22.7
003C5572 2019-03-27 17:36:07 21.3 15 22.7
003C5572 2019-03-27 17:04:28 21.4 16 22.8
003C5572 2019-03-27 16:32:50 21.4 16 22.8
003C5572 2019-03-27 16:01:11 21.4 16 22.9
003C5572 2019-03-27 15:29:33 21.3 16 22.9
003C5572 2019-03-27 14:57:52 21.2 16 22.9
003C5572 2019-03-27 14:26:14 21.1 16 22.9
003C5572 2019-03-27 13:54:34 21 16 22.9
003C5572 2019-03-27 13:22:55 20.9 15 23
003C5572 2019-03-27 12:51:15 20.9 15 23.1
003C5572 2019-03-27 12:19:36 20.8 15 22.3
003C5572 2019-03-27 11:47:57 20.8 15 21.2
003C5572 2019-03-27 11:16:17 20.8 15 21.2
003C5572 2019-03-27 10:44:37 20.7 15 19.7
003C5572 2019-03-27 10:12:57 20.7 15 19.9
003C5572 2019-03-27 09:41:19 20.7 15 19.8
003C5572 2019-03-27 09:09:41 20.6 14 19.8
003C5572 2019-03-27 08:38:03 20.6 14 19.6
003C5572 2019-03-27 08:06:25 20.6 14 19.7
003C5572 2019-03-27 07:34:47 20.6 14 19.6
003C5572 2019-03-27 07:03:08 20.7 14 19.6
003C5572 2019-03-27 06:31:30 20.6 14 19.7
003C5572 2019-03-27 05:59:52 20.7 14 19.6
003C5572 2019-03-27 05:28:13 20.7 14 20.9
003C5572 2019-03-27 04:56:35 20.7 14 20.9
003C5572 2019-03-27 04:24:55 20.7 14 20.8
003C5572 2019-03-27 03:53:16 20.7 14 20.7
003C5572 2019-03-27 03:21:37 20.7 14 20.7
003C5572 2019-03-27 02:49:58 20.7 14 20.5
003C5572 2019-03-27 02:18:17 20.8 14 20.5
003C5572 2019-03-27 01:46:36 20.8 14 20.6
003C5572 2019-03-27 01:14:56 20.8 14 20.6
003C5572 2019-03-27 00:43:17 20.9 14 20.4
003C5572 2019-03-27 00:11:38 20.9 14 20.3
003C5572 2019-03-26 23:39:59 20.9 14 20.2
003C5572 2019-03-26 23:08:19 21 14 20
003C5572 2019-03-26 22:36:39 21 14 20
003C5572 2019-03-26 22:05:00 21.1 14 20
003C5572 2019-03-26 21:33:20 21.1 14 20.2
003C5572 2019-03-26 21:01:41 21.2 14 20
003C5572 2019-03-26 20:30:02 21.2 14 19.8
003C5572 2019-03-26 19:58:23 21.2 14 19.9
003C5572 2019-03-26 19:26:45 21.2 14 19.9
003C5572 2019-03-26 18:55:05 21.3 14 19.8
003C5572 2019-03-26 18:23:24 21.3 14 19.7
003C5572 2019-03-26 17:51:43 21.4 14 19.6
003C5572 2019-03-26 17:20:02 21.4 14 19.4
003C5572 2019-03-26 16:47:47 21.4 15 16.9
003C5572 2019-03-26 16:16:07 21.4 15 16.6
003C5572 2019-03-26 15:44:27 21.3 15 16.6
003C5572 2019-03-26 15:12:46 21.2 15 16.8
003C5572 2019-03-26 14:41:06 21.1 16 16.7
003C5572 2019-03-26 14:09:26 20.9 16 16.7
003C5572 2019-03-26 13:37:46 20.8 16 16.5
003C5572 2019-03-26 13:06:07 20.8 16 16.3
003C5572 2019-03-26 12:34:27 20.6 17 16.3
003C5572 2019-03-26 12:02:48 20.6 17 16.3
003C5572 2019-03-26 11:31:08 20.6 17 16.4
003C5572 2019-03-26 10:59:28 20.6 18 16.4
003C5572 2019-03-26 10:27:49 20.6 18 16.7
003C5572 2019-03-26 09:56:09 20.6 18 16.8
003C5572 2019-03-26 09:24:30 20.6 19 16.2
003C5572 2019-03-26 08:52:50 20.6 19 16.4
003C5572 2019-03-26 08:21:10 20.6 19 16.5
003C5572 2019-03-26 07:49:30 20.6 20 16.8
003C5572 2019-03-26 07:17:50 20.6 20 16.8
003C5572 2019-03-26 06:46:10 20.6 20 17.2
003C5572 2019-03-26 06:14:32 20.6 20 17.4
003C5572 2019-03-26 05:42:53 20.6 20 17.5
003C5572 2019-03-26 05:11:12 20.6 20 17.6
003C5572 2019-03-26 04:39:31 20.6 20 17.7
003C5572 2019-03-26 04:07:50 20.6 20 17.6
003C5572 2019-03-26 03:36:08 20.6 20 17.5
003C5572 2019-03-26 03:04:28 20.6 20 17.5
003C5572 2019-03-26 02:32:49 20.6 20 17.8
003C5572 2019-03-26 02:01:09 20.6 20 17.6
003C5572 2019-03-26 01:29:30 20.7 20 17.7
003C5572 2019-03-26 00:57:49 20.7 20 17.8
003C5572 2019-03-26 00:26:09 20.7 20 17.8
003C5572 2019-03-25 23:54:32 20.7 20 17.8
003C5572 2019-03-25 23:22:53 20.7 20 17.7
003C5572 2019-03-25 22:51:12 20.8 20 17.7
003C5572 2019-03-25 22:19:34 20.8 20 17.6
003C5572 2019-03-25 21:47:55 20.8 21 17.4
003C5572 2019-03-25 21:16:15 20.9 20 17.2
003C5572 2019-03-25 20:44:36 20.9 20 17.5
003C5572 2019-03-25 20:12:55 20.9 20 17.6
003C5572 2019-03-25 19:41:15 20.9 20 17.2
003C5572 2019-03-25 19:09:35 20.9 21 17.3
003C5572 2019-03-25 18:37:56 21 21 17.3
003C5572 2019-03-25 18:06:17 21 21 17.7
003C5572 2019-03-25 17:34:37 21.1 22 17.4
003C5572 2019-03-25 17:02:59 21.1 23 17.4
003C5572 2019-03-25 16:31:17 21.1 23 17.4
003C5572 2019-03-25 15:59:36 21 23 17.3
003C5572 2019-03-25 15:27:55 21 23 17.7
003C5572 2019-03-25 14:56:17 21 23 17.8
003C5572 2019-03-25 14:24:04 21.1 24 18.2
003C5572 2019-03-25 13:52:23 21 24 17.9
003C5572 2019-03-25 13:20:40 20.9 24 17.9
003C5572 2019-03-25 12:48:56 20.8 23 18
003C5572 2019-03-25 12:17:13 20.7 23 18
003C5572 2019-03-25 11:45:31 20.8 24 17.9
003C5572 2019-03-25 11:13:50 20.7 24 18
003C5572 2019-03-25 10:42:04 20.6 24 20.1
003C5572 2019-03-25 10:10:21 20.5 24 20.2
003C5572 2019-03-25 09:38:43 20.3 23 20.3
003C5572 2019-03-25 09:06:58 20.3 23 20.3
003C5572 2019-03-25 08:35:19 20.3 23 20.3
003C5572 2019-03-25 08:03:37 20.3 23 20.3
003C5572 2019-03-25 07:31:55 20.3 23 20.4
003C5572 2019-03-25 07:00:15 20.2 23 20.3
003C5572 2019-03-25 06:28:34 20.3 23 20.3
003C5572 2019-03-25 05:56:54 20.3 23 21.5
003C5572 2019-03-25 05:25:14 20.3 23 21.4
003C5572 2019-03-25 04:53:35 20.3 23 21.5
003C5572 2019-03-25 04:21:54 20.3 23 21.5
003C5572 2019-03-25 03:50:14 20.3 23 21.5
003C5572 2019-03-25 03:18:34 20.3 23 21.5
003C5572 2019-03-25 02:46:54 20.4 23 21.5
003C5572 2019-03-25 02:15:13 20.4 23 21.4
003C5572 2019-03-25 01:43:32 20.4 23 21.4
003C5572 2019-03-25 01:11:50 20.5 23 21.3
003C5572 2019-03-25 00:40:08 20.5 23 21.3
003C5572 2019-03-25 00:08:26 20.5 23 21.3
003C5572 2019-03-24 23:36:46 20.6 23 22.3
003C5572 2019-03-24 23:05:04 20.7 23 22.3
003C5572 2019-03-24 22:33:23 20.7 23 22.3
003C5572 2019-03-24 22:01:42 20.8 23 22.3
003C5572 2019-03-24 21:30:01 20.8 23 21.3
003C5572 2019-03-24 20:58:22 20.8 23 21.4
003C5572 2019-03-24 20:26:42 20.9 23 21.3
003C5572 2019-03-24 19:55:01 20.9 23 22.4
003C5572 2019-03-24 19:23:21 20.9 23 22.4
003C5572 2019-03-24 18:51:39 21 23 22.4
003C5572 2019-03-24 18:19:59 21 23 22.4
003C5572 2019-03-24 17:48:18 21 23 22.5
003C5572 2019-03-24 17:16:38 20.9 23 22.5
003C5572 2019-03-24 16:44:56 20.9 23 21.5
003C5572 2019-03-24 16:13:15 20.8 24 21.6
003C5572 2019-03-24 15:41:34 20.7 24 21.6
003C5572 2019-03-24 15:09:52 20.5 24 21.5
003C5572 2019-03-24 14:38:14 20.4 24 21.6
003C5572 2019-03-24 14:06:27 20.3 23 21.6
003C5572 2019-03-24 13:34:47 20.3 23 21.6
003C5572 2019-03-24 13:03:02 20.3 23 21.6
003C5572 2019-03-24 12:31:21 20.3 23 21.7
003C5572 2019-03-24 11:59:07 20.3 23 21.8
003C5572 2019-03-24 11:27:26 20.3 23 21.8
003C5572 2019-03-24 10:55:44 20.2 23 20.6
003C5572 2019-03-24 10:24:02 20.2 23 20.5
003C5572 2019-03-24 09:52:19 20.3 23 20.6
003C5572 2019-03-24 09:20:35 20.2 23 20.6
003C5572 2019-03-24 08:48:52 20.2 23 20.5
003C5572 2019-03-24 08:17:11 20.2 23 20.4
003C5572 2019-03-24 07:45:28 20.2 23 20.5
003C5572 2019-03-24 07:13:47 20.2 23 18.8
003C5572 2019-03-24 06:42:04 20.2 23 18.9
003C5572 2019-03-24 06:10:23 20.2 23 20.6
003C5572 2019-03-24 05:38:41 20.3 23 21.8
003C5572 2019-03-24 05:07:00 20.2 23 21.7
003C5572 2019-03-24 04:35:19 20.3 23 21.8
003C5572 2019-03-24 04:03:38 20.3 23 21.8
003C5572 2019-03-24 03:31:56 20.3 23 21.7
003C5572 2019-03-24 03:00:14 20.3 23 21.6
003C5572 2019-03-24 02:28:31 20.3 23 21.6
003C5572 2019-03-24 01:56:48 20.3 23 21.6
003C5572 2019-03-24 01:25:05 20.3 23 21.5
003C5572 2019-03-24 00:53:23 20.3 22 21.6
003C5572 2019-03-24 00:21:40 20.3 22 21.5
003C5572 2019-03-23 23:49:58 20.3 22 21.5
003C5572 2019-03-23 23:18:17 20.3 22 21.4
003C5572 2019-03-23 22:46:37 20.3 22 21.4
003C5572 2019-03-23 22:14:55 20.3 22 21.4
003C5572 2019-03-23 21:43:13 20.3 22 21.4
003C5572 2019-03-23 21:11:32 20.3 22 21.4
003C5572 2019-03-23 20:39:50 20.3 22 21.3
003C5572 2019-03-23 20:08:08 20.4 22 21.3
003C5572 2019-03-23 19:36:26 20.4 22 21.2
003C5572 2019-03-23 19:04:44 20.3 21 21.2
003C5572 2019-03-23 18:33:01 20.4 21 21.1
003C5572 2019-03-23 18:01:19 20.4 21 21
003C5572 2019-03-23 17:29:37 20.3 21 20.9
003C5572 2019-03-23 16:57:54 20.4 21 19.2
003C5572 2019-03-23 16:26:11 20.4 21 16.4
003C5572 2019-03-23 15:54:28 20.4 21 16.2
003C5572 2019-03-23 15:22:47 20.4 21 15.9
003C5572 2019-03-23 14:51:04 20.4 21 16
003C5572 2019-03-23 14:19:24 20.4 20 16.3
003C5572 2019-03-23 13:47:44 20.4 20 16.5
003C5572 2019-03-23 13:16:02 20.4 20 16.6
003C5572 2019-03-23 12:44:21 20.4 20 16.6
003C5572 2019-03-23 12:12:40 20.4 20 16.4
003C5572 2019-03-23 11:41:00 20.4 20 16.4
003C5572 2019-03-23 11:09:20 20.4 20 16.4
003C5572 2019-03-23 10:37:41 20.4 20 16.6
003C5572 2019-03-23 10:06:03 20.4 20 16.7
003C5572 2019-03-23 09:33:52 20.4 20 17
003C5572 2019-03-23 09:02:16 20.4 20 16.8
003C5572 2019-03-23 08:30:38 20.4 20 17.1
003C5572 2019-03-23 07:59:00 20.5 20 19.6
003C5572 2019-03-23 07:27:20 20.5 20 19.6
003C5572 2019-03-23 06:55:42 20.5 19 19.6
003C5572 2019-03-23 06:24:03 20.5 19 19.5
003C5572 2019-03-23 05:52:24 20.5 19 19.5
003C5572 2019-03-23 05:20:46 20.5 19 19.6
003C5572 2019-03-23 04:49:09 20.5 19 19.6
003C5572 2019-03-23 04:17:34 20.6 19 19.7
003C5572 2019-03-23 03:45:51 20.6 19 19.7
003C5572 2019-03-23 03:14:13 20.6 19 19.7
003C5572 2019-03-23 02:42:34 20.7 19 19.6
003C5572 2019-03-23 02:10:56 20.7 19 19.6
003C5572 2019-03-23 01:39:17 20.8 18 19.5
003C5572 2019-03-23 01:07:38 20.9 18 19.3
003C5572 2019-03-23 00:35:59 20.9 18 19.2
003C5572 2019-03-23 00:04:19 20.9 18 19.3
003C5572 2019-03-22 23:32:42 21.1 18 19.2
003C5572 2019-03-22 23:01:00 21.1 18 19.2
003C5572 2019-03-22 22:29:20 21.2 18 19.1
003C5572 2019-03-22 21:57:40 21.3 18 19
003C5572 2019-03-22 21:26:01 21.3 18 18.9
003C5572 2019-03-22 20:54:21 21.3 18 18.9
003C5572 2019-03-22 20:22:41 21.3 17 18.7
003C5572 2019-03-22 19:51:01 21.3 17 18.6
003C5572 2019-03-22 19:19:20 21.3 17 18.5
003C5572 2019-03-22 18:47:40 21.3 17 15.5
003C5572 2019-03-22 18:16:00 21.3 17 15.5
003C5572 2019-03-22 17:44:21 21.2 17 15.9
003C5572 2019-03-22 17:12:41 21.3 17 15.9
003C5572 2019-03-22 16:41:03 21.2 17 16.1
003C5572 2019-03-22 16:09:23 21.1 18 16
003C5572 2019-03-22 15:37:40 21 18 16.1
003C5572 2019-03-22 15:06:01 20.9 18 16.2
003C5572 2019-03-22 14:34:21 20.8 19 16.4
003C5572 2019-03-22 14:02:44 20.7 19 16.4
003C5572 2019-03-22 13:31:01 20.7 20 16.3
003C5572 2019-03-22 12:59:20 20.7 20 16.3
003C5572 2019-03-22 12:27:39 20.6 21 16.6
003C5572 2019-03-22 11:55:59 20.7 21 16.7
003C5572 2019-03-22 11:24:20 20.7 21 16.6
003C5572 2019-03-22 10:52:37 20.7 22 16.5
003C5572 2019-03-22 10:20:57 20.6 22 16.6
003C5572 2019-03-22 09:49:16 20.6 23 16.7
003C5572 2019-03-22 09:17:34 20.6 23 16.8
003C5572 2019-03-22 08:45:53 20.6 23 17
003C5572 2019-03-22 08:14:11 20.6 24 17.1
003C5572 2019-03-22 07:42:30 20.6 24 17.1
003C5572 2019-03-22 07:10:17 20.6 25 17.1
003C5572 2019-03-22 06:38:38 20.6 25 17.1
003C5572 2019-03-22 06:06:58 20.6 25 16.7
003C5572 2019-03-22 05:35:18 20.6 25 16.6
003C5572 2019-03-22 05:03:37 20.6 26 16.4
003C5572 2019-03-22 04:31:56 20.6 26 16.4
003C5572 2019-03-22 04:00:16 20.6 26 16.2
003C5572 2019-03-22 03:28:33 20.6 26 16.1
003C5572 2019-03-22 02:56:53 20.7 27 16.3
003C5572 2019-03-22 02:25:13 20.7 27 16.1
003C5572 2019-03-22 01:53:32 20.7 27 16
003C5572 2019-03-22 01:21:52 20.7 27 16
003C5572 2019-03-22 00:50:11 20.8 28 16
003C5572 2019-03-22 00:18:32 20.8 28 15.8
003C5572 2019-03-21 23:46:53 20.8 28 15.9
003C5572 2019-03-21 23:15:12 20.8 28 15.8
003C5572 2019-03-21 22:43:31 20.8 28 15.8
003C5572 2019-03-21 22:11:50 20.9 28 15.7
003C5572 2019-03-21 21:40:10 20.9 28 15.7
003C5572 2019-03-21 21:08:28 20.9 28 15.4
003C5572 2019-03-21 20:36:47 20.9 27 15.3
003C5572 2019-03-21 20:05:06 21 27 15
003C5572 2019-03-21 19:33:24 21 27 14.9
003C5572 2019-03-21 19:01:44 21 27 14.9
003C5572 2019-03-21 18:30:05 21.1 27 14.9
003C5572 2019-03-21 17:58:23 21.2 27 15.3
003C5572 2019-03-21 17:26:46 21.2 27 15.6
003C5572 2019-03-21 16:55:07 21.3 27 15.6
003C5572 2019-03-21 16:23:25 21.3 27 15.6
003C5572 2019-03-21 15:51:46 21.4 27 15.7
003C5572 2019-03-21 15:20:07 21.3 27 15.7
003C5572 2019-03-21 14:48:29 21.2 27 15.9
003C5572 2019-03-21 14:16:51 21.1 26 16.1
003C5572 2019-03-21 13:45:11 21.1 26 15.9
003C5572 2019-03-21 13:13:32 20.9 26 16
003C5572 2019-03-21 12:41:52 20.9 25 15.8
003C5572 2019-03-21 12:10:11 20.8 25 16.2
003C5572 2019-03-21 11:38:31 20.8 25 16.2
003C5572 2019-03-21 11:06:50 20.8 25 16.3
003C5572 2019-03-21 10:35:10 20.7 25 16
003C5572 2019-03-21 10:03:30 20.6 25 16
003C5572 2019-03-21 09:31:49 20.6 25 16.1
003C5572 2019-03-21 09:00:08 20.6 25 16.2
003C5572 2019-03-21 08:28:28 20.5 25 16.3
003C5572 2019-03-21 07:56:47 20.5 25 16.3
003C5572 2019-03-21 07:25:05 20.5 25 16.5
003C5572 2019-03-21 06:53:23 20.6 25 16.4
003C5572 2019-03-21 06:21:42 20.6 25 16.5
003C5572 2019-03-21 05:50:02 20.6 25 16.8
003C5572 2019-03-21 05:18:20 20.8 25 16.6
003C5572 2019-03-21 05:17:06 20.6 25 16.7
003C5572 2019-03-21 04:45:27 20.6 25 16.6
003C5572 2019-03-21 04:13:44 20.5 25 16.9
003C5572 2019-03-21 03:42:03 20.6 26 17.2
003C5572 2019-03-21 03:10:23 20.6 26 17.5
003C5572 2019-03-21 02:38:43 20.6 26 17.8
003C5572 2019-03-21 02:07:03 20.6 26 17.6
003C5572 2019-03-21 01:35:22 20.6 26 17.5
003C5572 2019-03-21 01:03:43 20.6 26 17.5
003C5572 2019-03-21 00:32:03 20.6 26 17.4
003C5572 2019-03-21 00:00:24 20.6 26 17.6
003C5572 2019-03-20 23:28:44 20.6 26 17.3
003C5572 2019-03-20 22:57:04 20.6 26 17.3
003C5572 2019-03-20 22:25:25 20.7 26 17.3
003C5572 2019-03-20 21:53:45 20.7 26 17.2
003C5572 2019-03-20 21:22:06 20.7 26 17.1
003C5572 2019-03-20 20:50:27 20.7 26 17.1
003C5572 2019-03-20 20:18:48 20.7 26 17.2
003C5572 2019-03-20 19:47:08 20.8 26 17.2
003C5572 2019-03-20 19:15:28 20.9 26 19.6
003C5572 2019-03-20 18:43:49 20.9 25 19.6
003C5572 2019-03-20 18:12:11 20.9 25 19.6
003C5572 2019-03-20 17:40:31 21 25 19.6
003C5572 2019-03-20 17:08:51 21 25 19.6
003C5572 2019-03-20 16:37:12 21 25 21.1
003C5572 2019-03-20 16:05:33 21.1 25 21.1
003C5572 2019-03-20 15:33:56 21.1 26 21.2
003C5572 2019-03-20 15:02:17 21.1 25 21.1
003C5572 2019-03-20 14:30:40 21.1 25 20.9
003C5572 2019-03-20 13:59:03 21 25 20.8
003C5572 2019-03-20 13:27:26 21 25 20.6
003C5572 2019-03-20 12:55:47 20.9 25 20.8
003C5572 2019-03-20 12:24:08 20.9 25 20.8
003C5572 2019-03-20 11:52:29 20.9 25 20.8
003C5572 2019-03-20 11:20:47 20.8 25 20.9
003C5572 2019-03-20 10:49:07 20.7 25 20.9
003C5572 2019-03-20 10:17:26 20.6 25 20.9
003C5572 2019-03-20 09:45:45 20.5 25 22.1
003C5572 2019-03-20 09:14:03 20.5 25 22.1
003C5572 2019-03-20 08:42:23 20.5 26 22.2
003C5572 2019-03-20 08:10:39 20.5 26 22.3
003C5572 2019-03-20 07:38:57 20.5 26 22.3
003C5572 2019-03-20 07:07:17 20.5 26 22.2
003C5572 2019-03-20 06:35:35 20.5 27 22.3
003C5572 2019-03-20 06:03:55 20.5 27 21.2
003C5572 2019-03-20 05:32:15 20.5 27 21.2
003C5572 2019-03-20 05:00:34 20.5 27 21.2
003C5572 2019-03-20 04:28:53 20.5 27 21.3
003C5572 2019-03-20 03:57:11 20.5 27 21.2
003C5572 2019-03-20 03:25:29 20.5 27 19.7
003C5572 2019-03-20 02:53:18 20.5 27 19.5
003C5572 2019-03-20 02:21:36 20.6 28 19.5
003C5572 2019-03-20 01:49:57 20.6 28 19.6
003C5572 2019-03-20 01:18:13 20.6 28 19.6
003C5572 2019-03-20 00:46:33 20.6 28 19.8
003C5572 2019-03-20 00:14:52 20.6 28 19.7
003C5572 2019-03-19 23:43:11 20.7 28 19.7
003C5572 2019-03-19 23:11:30 20.7 28 19.7
003C5572 2019-03-19 22:39:50 20.7 28 19.7
003C5572 2019-03-19 22:08:10 20.7 28 19.9
003C5572 2019-03-19 21:36:30 20.8 28 19.8
003C5572 2019-03-19 21:04:49 20.8 29 17.6
003C5572 2019-03-19 20:33:08 20.8 29 17.6
003C5572 2019-03-19 20:01:27 20.9 29 17.5
003C5572 2019-03-19 19:29:45 20.9 29 17.5
003C5572 2019-03-19 18:58:03 21 29 17.7
003C5572 2019-03-19 18:26:21 21.1 29 17.9
003C5572 2019-03-19 17:54:39 21.2 29 17.9
003C5572 2019-03-19 17:22:58 21.3 30 18.2
003C5572 2019-03-19 16:51:17 21.2 30 18.2
003C5572 2019-03-19 16:19:35 21.2 29 18.4
003C5572 2019-03-19 15:47:53 21.1 29 18.2
003C5572 2019-03-19 15:16:11 21.1 29 18.5
003C5572 2019-03-19 14:44:31 21.2 29 18.5
003C5572 2019-03-19 14:12:49 21.1 29 18.7
003C5572 2019-03-19 13:41:06 21.1 29 18.9
003C5572 2019-03-19 13:09:25 21.1 29 19
003C5572 2019-03-19 12:37:44 21 29 19
003C5572 2019-03-19 12:06:01 20.9 29 19.2
003C5572 2019-03-19 11:34:19 20.9 29 19.1
003C5572 2019-03-19 11:02:36 20.8 28 19.3
003C5572 2019-03-19 10:30:54 20.7 28 19.5
003C5572 2019-03-19 09:59:12 20.6 28 19.6
003C5572 2019-03-19 09:27:29 20.6 27 19.5
003C5572 2019-03-19 08:55:46 20.5 27 19.3
003C5572 2019-03-19 08:24:03 20.5 27 19.3
003C5572 2019-03-19 07:52:23 20.5 27 19.4
003C5572 2019-03-19 07:20:40 20.5 27 19.4
003C5572 2019-03-19 06:48:58 20.5 27 19.4
003C5572 2019-03-19 06:17:15 20.5 27 19.3
003C5572 2019-03-19 05:45:32 20.5 27 19.2
003C5572 2019-03-19 05:13:50 20.5 27 19.1
003C5572 2019-03-19 04:42:07 20.5 27 19
003C5572 2019-03-19 04:10:25 20.5 27 18.7
003C5572 2019-03-19 03:38:43 20.6 27 18.5
003C5572 2019-03-19 03:06:59 20.5 27 18.3
003C5572 2019-03-19 02:35:15 20.5 27 18.3
003C5572 2019-03-19 02:03:32 20.5 27 18.1
003C5572 2019-03-19 01:31:51 20.6 27 18.1
003C5572 2019-03-19 01:00:08 20.6 27 17.9
003C5572 2019-03-19 00:27:54 20.6 27 17.5
003C5572 2019-03-18 23:56:12 20.6 27 17.5
003C5572 2019-03-18 23:24:30 20.6 27 17.3
003C5572 2019-03-18 22:52:47 20.6 27 17.4
003C5572 2019-03-18 22:21:03 20.6 27 17
003C5572 2019-03-18 21:49:19 20.7 27 16.8
003C5572 2019-03-18 21:17:36 20.6 27 16.4
003C5572 2019-03-18 20:45:53 20.7 27 16.5
003C5572 2019-03-18 20:14:11 20.7 27 16.8
003C5572 2019-03-18 19:42:29 20.7 27 17.1
003C5572 2019-03-18 19:10:47 20.7 27 17
003C5572 2019-03-18 18:39:04 20.8 27 17.3
003C5572 2019-03-18 18:07:23 20.8 27 17.5
003C5572 2019-03-18 17:35:42 20.9 27 17.7
003C5572 2019-03-18 17:03:57 20.9 27 17.6
003C5572 2019-03-18 16:32:15 20.9 27 17.6
003C5572 2019-03-18 16:00:32 20.9 27 17.8
003C5572 2019-03-18 15:28:49 20.8 27 18
003C5572 2019-03-18 14:57:09 20.8 27 18.3
003C5572 2019-03-18 14:25:24 20.8 27 18.5
003C5572 2019-03-18 13:53:41 20.7 27 18.6
003C5572 2019-03-18 13:21:58 20.7 27 18.7
003C5572 2019-03-18 12:50:15 20.7 27 18.7
003C5572 2019-03-18 12:18:34 20.7 27 18.6
003C5572 2019-03-18 11:46:51 20.7 27 18.7
003C5572 2019-03-18 11:15:09 20.6 27 18.9
003C5572 2019-03-18 10:43:28 20.6 27 18.9
003C5572 2019-03-18 10:11:46 20.6 27 18.9
003C5572 2019-03-18 09:40:06 20.6 27 18.8
003C5572 2019-03-18 09:08:27 20.6 27 18.9
003C5572 2019-03-18 08:36:44 20.5 27 18.8
003C5572 2019-03-18 08:05:03 20.5 27 18.9
003C5572 2019-03-18 07:33:21 20.5 27 18.9
003C5572 2019-03-18 07:01:40 20.5 27 18.6
003C5572 2019-03-18 06:29:57 20.5 27 18.7
003C5572 2019-03-18 05:58:15 20.5 27 18.5
003C5572 2019-03-18 05:26:33 20.5 27 18.3
003C5572 2019-03-18 04:54:50 20.5 27 18.3
003C5572 2019-03-18 04:23:08 20.5 27 18.5
003C5572 2019-03-18 03:51:26 20.5 27 18.5
003C5572 2019-03-18 03:19:44 20.5 26 18.4
003C5572 2019-03-18 02:48:02 20.5 26 18.5
003C5572 2019-03-18 02:16:20 20.5 26 18.3
003C5572 2019-03-18 01:44:40 20.5 26 18.2
003C5572 2019-03-18 01:13:00 20.5 26 18.3
003C5572 2019-03-18 00:41:20 20.5 26 18.3
003C5572 2019-03-18 00:09:38 20.5 26 18.4
003C5572 2019-03-17 23:37:58 20.5 26 18.6
003C5572 2019-03-17 23:06:16 20.5 26 18.6
003C5572 2019-03-17 22:34:35 20.5 26 18.5
003C5572 2019-03-17 22:02:21 20.5 26 18.8
003C5572 2019-03-17 21:30:40 20.5 26 18.5
003C5572 2019-03-17 20:59:00 20.5 26 18.7
003C5572 2019-03-17 20:27:19 20.5 26 18.9
003C5572 2019-03-17 19:55:39 20.5 26 19
003C5572 2019-03-17 19:24:01 20.5 26 19.1
003C5572 2019-03-17 18:52:20 20.5 26 19.3
003C5572 2019-03-17 18:20:40 20.5 26 19.5
003C5572 2019-03-17 17:49:00 20.5 26 19.4
003C5572 2019-03-17 17:17:20 20.5 26 19.3
003C5572 2019-03-17 16:45:41 20.5 26 19.3
003C5572 2019-03-17 16:14:01 20.6 26 19.2
003C5572 2019-03-17 15:42:20 20.6 26 19.3
003C5572 2019-03-17 15:10:40 20.6 26 19.4
003C5572 2019-03-17 14:39:00 20.6 26 21
003C5572 2019-03-17 14:07:19 20.6 26 20.9
003C5572 2019-03-17 13:35:39 20.6 26 22
003C5572 2019-03-17 13:03:59 20.6 26 22.1
003C5572 2019-03-17 12:32:19 20.6 26 22
003C5572 2019-03-17 12:00:37 20.6 26 22
003C5572 2019-03-17 11:28:57 20.6 26 22.1
003C5572 2019-03-17 10:57:16 20.6 26 22.1
003C5572 2019-03-17 10:25:35 20.6 26 22.1
003C5572 2019-03-17 09:53:53 20.6 26 22.1
003C5572 2019-03-17 09:22:12 20.5 26 22
003C5572 2019-03-17 08:50:34 20.6 26 22
003C5572 2019-03-17 08:18:52 20.6 26 22
003C5572 2019-03-17 07:47:11 20.5 26 22
003C5572 2019-03-17 07:15:30 20.6 26 21.8
003C5572 2019-03-17 06:43:49 20.5 26 21.7
003C5572 2019-03-17 06:12:08 20.6 26 21.7
003C5572 2019-03-17 05:40:28 20.6 26 21.6
003C5572 2019-03-17 05:08:46 20.6 26 21.5
003C5572 2019-03-17 04:37:07 20.5 26 21.5
003C5572 2019-03-17 04:05:26 20.5 26 21.7
003C5572 2019-03-17 03:33:45 20.6 26 21.7
003C5572 2019-03-17 03:02:04 20.6 26 21.6
003C5572 2019-03-17 02:30:23 20.6 26 21.6
003C5572 2019-03-17 01:58:42 20.5 26 21.5
003C5572 2019-03-17 01:27:01 20.5 26 20.3
003C5572 2019-03-17 00:55:19 20.5 26 20.3
003C5572 2019-03-17 00:23:39 20.5 26 18.7
003C5572 2019-03-16 23:51:59 20.5 26 18.6
003C5572 2019-03-16 23:20:19 20.5 26 18.6
003C5572 2019-03-16 22:48:39 20.6 26 18.7
003C5572 2019-03-16 22:17:01 20.5 26 18.6
003C5572 2019-03-16 21:45:18 20.6 26 18.5
003C5572 2019-03-16 21:13:38 20.6 26 18.5
003C5572 2019-03-16 20:41:57 20.5 26 18.5
003C5572 2019-03-16 20:10:16 20.6 26 18.6
003C5572 2019-03-16 19:37:57 20.6 26 18.8
003C5572 2019-03-16 19:06:18 20.6 26 18.8
003C5572 2019-03-16 18:34:38 20.6 26 18.9
003C5572 2019-03-16 18:02:57 20.6 26 18.9
003C5572 2019-03-16 17:31:17 20.6 26 19
003C5572 2019-03-16 16:59:36 20.6 26 19.2
003C5572 2019-03-16 16:27:54 20.6 26 19.3
003C5572 2019-03-16 15:56:12 20.6 26 19.4
003C5572 2019-03-16 15:24:29 20.6 26 19.1
003C5572 2019-03-16 14:52:46 20.6 26 19.2
003C5572 2019-03-16 14:21:04 20.6 26 19.2
003C5572 2019-03-16 13:49:22 20.6 26 19.3
003C5572 2019-03-16 13:17:41 20.6 26 19.3
003C5572 2019-03-16 12:46:00 20.6 26 19.1
003C5572 2019-03-16 12:14:20 20.6 26 19.1
003C5572 2019-03-16 11:42:40 20.6 26 19.1
003C5572 2019-03-16 11:11:01 20.6 26 19.2
003C5572 2019-03-16 10:39:22 20.6 26 19.4
003C5572 2019-03-16 10:07:42 20.6 26 19.2
003C5572 2019-03-16 09:36:02 20.6 26 19.4
003C5572 2019-03-16 09:04:22 20.6 26 19.5
003C5572 2019-03-16 08:32:42 20.6 26 19.5
003C5572 2019-03-16 08:01:01 20.6 26 19.6
003C5572 2019-03-16 07:29:19 20.6 26 19.5
003C5572 2019-03-16 06:57:37 20.6 26 19.4
003C5572 2019-03-16 06:25:53 20.6 26 19.4
003C5572 2019-03-16 05:54:11 20.6 26 19.5
003C5572 2019-03-16 05:22:30 20.6 26 19.5
003C5572 2019-03-16 04:50:47 20.6 26 19.4
003C5572 2019-03-16 04:19:05 20.6 26 19.5
003C5572 2019-03-16 03:47:23 20.6 26 19.4
003C5572 2019-03-16 03:15:41 20.6 26 21
003C5572 2019-03-16 02:43:59 20.6 26 20.9
003C5572 2019-03-16 02:12:18 20.6 26 21
003C5572 2019-03-16 01:40:36 20.7 26 21
003C5572 2019-03-16 01:08:54 20.6 26 21.1
003C5572 2019-03-16 00:37:12 20.6 26 21
003C5572 2019-03-16 00:05:30 20.6 26 20.9
003C5572 2019-03-15 23:33:49 20.7 26 21.1
003C5572 2019-03-15 23:02:07 20.7 26 21.1
003C5572 2019-03-15 22:30:25 20.7 26 20.9
003C5572 2019-03-15 21:58:44 20.7 26 20.8
003C5572 2019-03-15 21:27:02 20.7 26 20.7
003C5572 2019-03-15 20:55:21 20.8 26 20.8
003C5572 2019-03-15 20:23:39 20.8 26 20.6
003C5572 2019-03-15 19:51:57 20.8 26 20.6
003C5572 2019-03-15 19:20:17 20.7 26 20.7
003C5572 2019-03-15 18:48:35 20.8 26 20.6
003C5572 2019-03-15 18:16:52 20.8 26 20.8
003C5572 2019-03-15 17:45:10 20.8 26 20.9
003C5572 2019-03-15 17:12:55 20.8 26 20.8
003C5572 2019-03-15 16:41:13 20.8 26 20.7
003C5572 2019-03-15 16:09:32 20.8 26 20.8
003C5572 2019-03-15 15:37:51 20.8 26 20.7
003C5572 2019-03-15 15:06:10 20.8 25 20.6
003C5572 2019-03-15 14:34:30 20.8 25 18.9
003C5572 2019-03-15 14:02:50 20.8 25 18.9
003C5572 2019-03-15 13:31:10 20.8 26 18.9
003C5572 2019-03-15 12:59:29 20.8 25 18.8
003C5572 2019-03-15 12:27:48 20.8 25 18.7
003C5572 2019-03-15 11:56:07 20.8 25 18.9
003C5572 2019-03-15 11:24:27 20.7 25 18.9
003C5572 2019-03-15 10:52:46 20.7 25 18.8
003C5572 2019-03-15 10:21:05 20.7 25 20.5
003C5572 2019-03-15 09:49:26 20.6 25 20.6
003C5572 2019-03-15 09:17:47 20.6 25 20.6
003C5572 2019-03-15 08:46:07 20.6 24 20.6
003C5572 2019-03-15 08:14:26 20.5 24 20.5
003C5572 2019-03-15 07:42:45 20.5 24 20.6
003C5572 2019-03-15 07:11:06 20.5 24 20.5
003C5572 2019-03-15 06:39:26 20.6 24 20.5
003C5572 2019-03-15 06:07:48 20.6 24 20.5
003C5572 2019-03-15 05:36:07 20.6 24 20.2
003C5572 2019-03-15 05:04:28 20.6 24 20.2
003C5572 2019-03-15 04:32:49 20.6 24 20.2
003C5572 2019-03-15 04:01:11 20.6 24 20.1
003C5572 2019-03-15 03:29:32 20.6 24 20.3
003C5572 2019-03-15 02:57:52 20.6 24 20.2
003C5572 2019-03-15 02:26:13 20.6 24 20.2
003C5572 2019-03-15 01:54:33 20.6 23 20.2
003C5572 2019-03-15 01:22:53 20.6 23 20.1
003C5572 2019-03-15 00:51:14 20.6 23 20.2
003C5572 2019-03-15 00:19:35 20.6 23 20.3
003C5572 2019-03-14 23:47:56 20.7 23 20.3
003C5572 2019-03-14 23:16:16 20.7 23 20.4
003C5572 2019-03-14 22:44:36 20.7 23 20.4
003C5572 2019-03-14 22:12:57 20.7 23 20.3
003C5572 2019-03-14 21:41:17 20.7 23 20.3
003C5572 2019-03-14 21:09:39 20.8 23 18.7
003C5572 2019-03-14 20:37:58 20.8 23 18.6
003C5572 2019-03-14 20:06:17 20.8 23 18.7
003C5572 2019-03-14 19:34:37 20.8 23 18.7
003C5572 2019-03-14 19:02:57 20.9 23 18.9
003C5572 2019-03-14 18:31:17 20.9 23 19
003C5572 2019-03-14 17:59:37 20.9 23 18.9
003C5572 2019-03-14 17:27:57 20.9 23 18.7
003C5572 2019-03-14 16:56:14 20.9 23 20.5
003C5572 2019-03-14 16:24:34 20.9 23 20.6
003C5572 2019-03-14 15:52:53 20.9 23 20.7
003C5572 2019-03-14 15:21:14 20.9 23 20.9
003C5572 2019-03-14 14:49:02 20.9 23 21.1
003C5572 2019-03-14 14:17:24 20.9 23 21.2
003C5572 2019-03-14 13:45:45 20.9 23 21.3
003C5572 2019-03-14 13:14:07 20.9 22 21.2
003C5572 2019-03-14 12:42:26 20.8 22 21.4
003C5572 2019-03-14 12:10:48 20.8 22 21.4
003C5572 2019-03-14 11:39:10 20.8 22 21.4
003C5572 2019-03-14 11:07:29 20.7 21 21.4
003C5572 2019-03-14 10:35:48 20.7 21 21.4
003C5572 2019-03-14 10:04:08 20.7 21 21.5
003C5572 2019-03-14 09:32:29 20.6 20 21.5
003C5572 2019-03-14 09:00:48 20.6 20 21.7
003C5572 2019-03-14 04:47:24 20.6 18 21.6
003C5572 2019-03-14 04:15:44 20.6 18 20.3
003C5572 2019-03-14 03:44:02 20.6 18 20.1
003C5572 2019-03-14 03:12:23 20.6 18 20.1
003C5572 2019-03-14 02:40:42 20.6 18 20
003C5572 2019-03-14 02:09:03 20.6 17 19.9
003C5572 2019-03-14 01:37:24 20.6 17 19.9
003C5572 2019-03-14 01:05:45 20.6 17 19.8
003C5572 2019-03-14 00:34:05 20.6 17 19.6
003C5572 2019-03-14 00:02:25 20.6 17 19.5
003C5572 2019-03-13 23:30:45 20.6 17 19.4
003C5572 2019-03-13 22:59:04 20.6 17 19.2
003C5572 2019-03-13 22:27:24 20.6 17 19.2
003C5572 2019-03-13 21:55:43 20.6 16 19.2
003C5572 2019-03-13 21:24:04 20.7 16 19
003C5572 2019-03-13 20:52:24 20.7 16 19.3
003C5572 2019-03-13 20:20:45 20.7 16 19.2
003C5572 2019-03-13 19:49:08 20.7 16 19.1
003C5572 2019-03-13 19:17:30 20.7 16 19.4
003C5572 2019-03-13 18:45:52 20.8 16 19.5
003C5572 2019-03-13 18:14:14 20.8 16 19.6
003C5572 2019-03-13 17:42:34 20.9 16 19.7
003C5572 2019-03-13 17:10:53 20.9 16 19.9
003C5572 2019-03-13 16:39:13 21 16 20.1
003C5572 2019-03-13 16:07:34 20.9 16 20.4
003C5572 2019-03-13 15:35:55 20.9 16 21.7
003C5572 2019-03-13 15:04:16 20.9 16 21.9
003C5572 2019-03-13 14:32:37 20.9 16 22
003C5572 2019-03-13 14:00:59 20.8 16 21.9
003C5572 2019-03-13 13:29:20 20.8 16 22
003C5572 2019-03-13 12:57:41 20.9 16 22
003C5572 2019-03-13 12:25:32 20.8 16 22.1
003C5572 2019-03-13 11:53:54 20.8 16 22.3
003C5572 2019-03-13 11:22:14 20.7 16 22.3
003C5572 2019-03-13 10:50:34 20.7 16 22.4
003C5572 2019-03-13 10:18:53 20.6 16 22.5
003C5572 2019-03-13 09:47:13 20.5 16 22.6
003C5572 2019-03-13 09:15:34 20.3 15 22.6
003C5572 2019-03-13 08:43:54 20.3 15 22.6
003C5572 2019-03-13 08:12:15 20.3 15 22.6
003C5572 2019-03-13 07:40:34 20.3 15 22.5
003C5572 2019-03-13 07:08:55 20.3 15 22.5
003C5572 2019-03-13 06:37:16 20.3 15 22.4
003C5572 2019-03-13 06:05:38 20.3 15 22.4
003C5572 2019-03-13 05:33:59 20.3 15 22.3
003C5572 2019-03-13 05:02:22 20.3 16 22.3
003C5572 2019-03-13 04:30:44 20.4 16 22.2
003C5572 2019-03-13 03:59:07 20.4 16 22.1
003C5572 2019-03-13 03:27:30 20.4 16 22
003C5572 2019-03-13 02:55:52 20.4 16 20.8
003C5572 2019-03-13 02:24:14 20.4 16 21.9
003C5572 2019-03-13 01:52:35 20.4 16 21.8
003C5572 2019-03-13 01:20:57 20.4 16 21.8
003C5572 2019-03-13 00:49:19 20.5 16 21.7
003C5572 2019-03-13 00:17:41 20.5 16 22.6
003C5572 2019-03-12 23:46:03 20.5 16 22.7
003C5572 2019-03-12 23:14:25 20.5 16 22.6
003C5572 2019-03-12 22:42:48 20.5 16 22.5
003C5572 2019-03-12 22:11:10 20.6 16 22.4
003C5572 2019-03-12 21:39:35 20.6 16 23.2
003C5572 2019-03-12 21:07:56 20.6 16 23.8
003C5572 2019-03-12 20:36:16 20.6 16 23.7
003C5572 2019-03-12 20:04:35 20.6 16 24.3
003C5572 2019-03-12 19:32:55 20.6 16 24.9
003C5572 2019-03-12 19:01:17 20.6 16 25.3
003C5572 2019-03-12 18:29:37 20.7 16 25.8
003C5572 2019-03-12 17:57:57 20.7 16 26.2
003C5572 2019-03-12 17:26:18 20.7 16 26.5
003C5572 2019-03-12 16:54:40 20.7 16 26.9
003C5572 2019-03-12 16:23:00 20.7 16 27.2
003C5572 2019-03-12 15:51:23 20.7 16 27.5
003C5572 2019-03-12 15:19:44 20.7 16 27.8
003C5572 2019-03-12 14:48:05 20.7 16 27.7
003C5572 2019-03-12 14:16:27 20.6 16 28
003C5572 2019-03-12 13:44:48 20.6 16 28.3
003C5572 2019-03-12 13:13:10 20.6 16 28.3
003C5572 2019-03-12 12:41:32 20.6 16 28.5
003C5572 2019-03-12 12:09:53 20.6 16 28.7
003C5572 2019-03-12 11:38:13 20.5 16 28.9
003C5572 2019-03-12 11:06:33 20.5 16 28.9
003C5572 2019-03-12 10:34:53 20.5 16 29.1
003C5572 2019-03-12 10:02:41 20.4 16 29.5
003C5572 2019-03-12 09:31:01 20.3 15 29.7
003C5572 2019-03-12 08:59:22 20.3 15 29.7
003C5572 2019-03-12 08:27:41 20.3 15 29.7
003C5572 2019-03-12 07:56:02 20.3 16 29.9
003C5572 2019-03-12 07:24:20 20.3 16 29.9
003C5572 2019-03-12 06:52:42 20.3 16 29.9
003C5572 2019-03-12 06:21:02 20.4 16 29.9
003C5572 2019-03-12 05:49:21 20.4 16 29.9
003C5572 2019-03-12 05:17:40 20.4 16 29.9
003C5572 2019-03-12 04:45:59 20.4 16 29.7
003C5572 2019-03-12 04:14:20 20.4 16 29.5
003C5572 2019-03-12 03:42:40 20.4 16 29.3
003C5572 2019-03-12 03:10:59 20.4 16 29.3
003C5572 2019-03-12 02:39:18 20.4 16 29.1
003C5572 2019-03-12 01:36:01 20.4 16 28.9
003C5572 2019-03-12 01:04:21 20.4 16 28.9
003C5572 2019-03-12 00:32:41 20.4 16 28.7
003C5572 2019-03-12 00:01:01 20.5 16 28.5
003C5572 2019-03-11 23:29:22 20.5 16 28.2
003C5572 2019-03-11 22:57:42 20.5 16 28
003C5572 2019-03-11 22:26:02 20.5 16 27.7
003C5572 2019-03-11 21:54:24 20.6 16 27.4
003C5572 2019-03-11 21:22:45 20.6 16 27.1
003C5572 2019-03-11 20:51:05 20.6 16 26.8
003C5572 2019-03-11 20:19:28 20.6 16 26.5
003C5572 2019-03-11 19:47:49 20.6 16 26.1
003C5572 2019-03-11 19:16:10 20.7 16 25.7
003C5572 2019-03-11 18:44:31 20.7 16 25.3
003C5572 2019-03-11 18:12:53 20.7 16 24.8
003C5572 2019-03-11 17:41:14 20.8 16 24.2
003C5572 2019-03-11 17:09:36 20.8 16 23.5
003C5572 2019-03-11 16:37:58 20.7 16 22.9
003C5572 2019-03-11 16:06:17 20.7 17 22.1
003C5572 2019-03-11 15:34:39 20.6 17 22.2
003C5572 2019-03-11 15:02:59 20.6 17 22.2
003C5572 2019-03-11 14:31:21 20.6 17 22.4
003C5572 2019-03-11 13:59:42 20.5 17 21.4
003C5572 2019-03-11 13:28:02 20.5 17 21.6
003C5572 2019-03-11 12:56:23 20.5 17 21.7
003C5572 2019-03-11 12:24:42 20.5 17 21.6
003C5572 2019-03-11 11:53:01 20.4 17 20.5
003C5572 2019-03-11 11:21:20 20.5 17 20.4
003C5572 2019-03-11 10:49:40 20.4 17 20.6
003C5572 2019-03-11 10:18:01 20.4 17 20.7
003C5572 2019-03-11 09:46:21 20.4 17 20.8
003C5572 2019-03-11 09:14:43 20.3 18 20.9
003C5572 2019-03-11 08:43:04 20.3 18 21.1
003C5572 2019-03-11 08:11:24 20.3 18 21.2
003C5572 2019-03-11 07:39:13 20.3 18 21.3
003C5572 2019-03-11 07:07:35 20.3 18 21.4
003C5572 2019-03-11 06:35:55 20.3 18 21.4
003C5572 2019-03-11 06:04:14 20.3 18 21.4
003C5572 2019-03-11 05:32:33 20.3 18 21.4
003C5572 2019-03-11 05:00:51 20.4 19 21.4
003C5572 2019-03-11 04:29:10 20.4 19 21.5
003C5572 2019-03-11 03:57:30 20.4 19 21.4
003C5572 2019-03-11 03:25:49 20.4 19 21.3
003C5572 2019-03-11 02:54:08 20.4 19 21.3
003C5572 2019-03-11 02:22:26 20.4 19 21.4
003C5572 2019-03-11 01:50:47 20.4 19 21.4
003C5572 2019-03-11 01:19:06 20.4 19 21.3
003C5572 2019-03-11 00:47:25 20.4 19 21.2
003C5572 2019-03-11 00:15:45 20.4 19 21.3
003C5572 2019-03-10 23:44:06 20.4 20 21.4
003C5572 2019-03-10 23:12:25 20.4 20 21.2
003C5572 2019-03-10 22:40:45 20.4 20 21.3
003C5572 2019-03-10 22:09:05 20.5 20 21.1
003C5572 2019-03-10 21:37:26 20.5 20 21
003C5572 2019-03-10 21:05:46 20.5 20 20.8
003C5572 2019-03-10 20:34:07 20.5 20 20.8
003C5572 2019-03-10 20:02:28 20.6 20 20.6
003C5572 2019-03-10 19:30:49 20.6 20 20.6
003C5572 2019-03-10 18:59:12 20.6 20 20.7
003C5572 2019-03-10 18:27:33 20.6 21 20.4
003C5572 2019-03-10 17:55:54 20.7 21 20.3
003C5572 2019-03-10 17:24:14 20.6 21 20.3
003C5572 2019-03-10 16:52:36 20.7 21 20.4
003C5572 2019-03-10 16:20:55 20.6 21 20.5
003C5572 2019-03-10 15:49:16 20.6 22 20.7
003C5572 2019-03-10 15:17:37 20.6 22 20.8
003C5572 2019-03-10 14:45:57 20.6 23 21
003C5572 2019-03-10 14:14:18 20.6 23 21.1
003C5572 2019-03-10 13:42:38 20.5 24 21
003C5572 2019-03-10 13:10:57 20.5 24 20.8
003C5572 2019-03-10 12:39:18 20.5 24 20.8
003C5572 2019-03-10 12:07:39 20.5 24 21.9
003C5572 2019-03-10 11:36:01 20.5 24 22
003C5572 2019-03-10 11:04:22 20.5 24 21.9
003C5572 2019-03-10 10:32:44 20.5 24 21.8
003C5572 2019-03-10 10:01:05 20.5 24 21.8
003C5572 2019-03-10 09:29:27 20.5 24 21.8
003C5572 2019-03-10 08:57:47 20.5 24 21.8
003C5572 2019-03-10 08:26:08 20.5 24 22
003C5572 2019-03-10 07:54:28 20.5 24 22.1
003C5572 2019-03-10 07:22:49 20.5 24 22.1
003C5572 2019-03-10 06:51:11 20.5 24 22.1
003C5572 2019-03-10 06:19:33 20.5 24 22.1
003C5572 2019-03-10 05:47:54 20.5 24 22.1
003C5572 2019-03-10 05:15:43 20.5 24 22.2
003C5572 2019-03-10 04:44:04 20.5 24 22.2
003C5572 2019-03-10 04:12:25 20.5 24 22.1
003C5572 2019-03-10 03:40:45 20.5 24 22.1
003C5572 2019-03-10 03:09:06 20.5 24 22
003C5572 2019-03-10 02:37:27 20.5 24 22
003C5572 2019-03-10 02:05:46 20.5 24 22
003C5572 2019-03-10 01:34:07 20.5 24 21.8
003C5572 2019-03-10 01:02:26 20.6 24 21.8
003C5572 2019-03-10 00:30:45 20.6 24 21.9
003C5572 2019-03-09 23:59:04 20.6 24 21.9
003C5572 2019-03-09 23:27:24 20.6 23 22.1
003C5572 2019-03-09 22:55:44 20.6 23 21
003C5572 2019-03-09 22:24:04 20.6 23 21
003C5572 2019-03-09 21:52:24 20.6 23 21.1
003C5572 2019-03-09 21:20:43 20.6 23 21.1
003C5572 2019-03-09 20:49:02 20.6 23 21.1
003C5572 2019-03-09 20:17:22 20.6 23 21.3
003C5572 2019-03-09 19:45:42 20.7 23 21.3
003C5572 2019-03-09 19:14:02 20.7 23 21.3
003C5572 2019-03-09 18:42:21 20.7 23 21.4
003C5572 2019-03-09 18:10:41 20.7 23 21.3
003C5572 2019-03-09 17:39:02 20.7 23 21.4
003C5572 2019-03-09 17:07:22 20.7 23 21.4
003C5572 2019-03-09 16:35:43 20.7 23 21.4
003C5572 2019-03-09 16:04:03 20.7 23 21.2
003C5572 2019-03-09 15:32:27 20.7 24 21.1
003C5572 2019-03-09 15:00:46 20.7 23 21.2
003C5572 2019-03-09 14:29:07 20.7 24 21.1
003C5572 2019-03-09 13:57:28 20.7 24 20.9
003C5572 2019-03-09 13:25:47 20.6 24 20.9
003C5572 2019-03-09 12:54:09 20.6 24 20.8
003C5572 2019-03-09 12:22:26 20.6 24 20.9
003C5572 2019-03-09 11:50:44 20.6 24 20.9
003C5572 2019-03-09 11:19:04 20.5 24 20.8
003C5572 2019-03-09 10:47:22 20.5 24 21
003C5572 2019-03-09 10:15:40 20.5 24 20.8
003C5572 2019-03-09 09:43:58 20.5 24 20.9
003C5572 2019-03-09 09:12:16 20.5 25 20.8
003C5572 2019-03-09 08:40:36 20.6 25 20.8
003C5572 2019-03-09 08:08:54 20.5 25 20.8
003C5572 2019-03-09 07:37:14 20.6 25 21.9
003C5572 2019-03-09 07:05:34 20.5 25 21.8
003C5572 2019-03-09 06:33:55 20.6 25 21.8
003C5572 2019-03-09 06:02:16 20.6 26 21.8
003C5572 2019-03-09 05:30:37 20.6 26 21.6
003C5572 2019-03-09 04:58:58 20.6 26 21.7
003C5572 2019-03-09 04:27:18 20.6 26 21.7
003C5572 2019-03-09 03:55:36 20.7 26 22.6
003C5572 2019-03-09 03:23:56 20.7 26 22.6
003C5572 2019-03-09 02:51:44 20.7 26 22.6
003C5572 2019-03-09 02:20:04 20.7 26 23.4
003C5572 2019-03-09 01:48:24 20.7 26 23.5
003C5572 2019-03-09 01:16:46 20.7 26 24.2
003C5572 2019-03-09 00:45:07 20.7 26 24.2
003C5572 2019-03-09 00:13:27 20.8 26 24.2
003C5572 2019-03-08 23:41:45 20.8 26 24.1
003C5572 2019-03-08 23:10:04 20.8 26 24
003C5572 2019-03-08 22:38:24 20.9 26 24
003C5572 2019-03-08 22:06:44 20.9 26 23.9
003C5572 2019-03-08 21:35:04 20.9 26 23.9
003C5572 2019-03-08 21:03:24 20.9 26 23.8
003C5572 2019-03-08 20:31:44 20.9 26 23.8
003C5572 2019-03-08 20:00:02 21 26 23.8
003C5572 2019-03-08 19:28:22 21 26 23.8
003C5572 2019-03-08 18:56:40 21 26 23
003C5572 2019-03-08 18:25:00 21 26 23
003C5572 2019-03-08 17:53:19 21 26 23
003C5572 2019-03-08 17:21:41 21.1 26 23
003C5572 2019-03-08 16:50:02 21.1 27 23.1
003C5572 2019-03-08 16:18:23 21.1 26 23
003C5572 2019-03-08 15:46:42 21 26 23
003C5572 2019-03-08 15:15:03 21 26 22.2
003C5572 2019-03-08 14:43:23 21 26 22.1
003C5572 2019-03-08 14:11:44 20.9 26 22.2
003C5572 2019-03-08 13:40:04 20.9 26 22.2
003C5572 2019-03-08 13:08:24 20.9 26 21.2
003C5572 2019-03-08 12:36:45 20.8 25 21.2
003C5572 2019-03-08 12:05:06 20.8 25 19.8
003C5572 2019-03-08 11:33:28 20.8 25 19.6
003C5572 2019-03-08 11:01:48 20.8 25 19.8
003C5572 2019-03-08 10:30:12 20.8 24 19.9
003C5572 2019-03-08 09:58:34 20.7 24 20
003C5572 2019-03-08 09:26:57 20.7 24 19.8
003C5572 2019-03-08 08:55:20 20.7 24 20
003C5572 2019-03-08 08:23:44 20.7 23 20.1
003C5572 2019-03-08 07:52:07 20.7 23 19.9
003C5572 2019-03-08 07:20:31 20.7 23 20
003C5572 2019-03-08 06:48:55 20.7 23 20
003C5572 2019-03-08 06:17:17 20.7 23 19.9
003C5572 2019-03-08 05:45:40 20.7 23 20.1
003C5572 2019-03-08 05:14:01 20.7 23 20.2
003C5572 2019-03-08 04:42:23 20.7 23 21.5
003C5572 2019-03-08 04:10:44 20.7 22 21.6
003C5572 2019-03-08 03:39:04 20.7 22 21.5
003C5572 2019-03-08 03:07:23 20.7 22 21.5
003C5572 2019-03-08 02:35:40 20.7 22 21.5
003C5572 2019-03-08 02:04:01 20.7 22 21.4
003C5572 2019-03-08 01:32:20 20.7 22 21.5
003C5572 2019-03-08 01:00:40 20.7 22 21.5
003C5572 2019-03-08 00:28:35 20.7 22 21.4
003C5572 2019-03-07 23:56:55 20.7 22 21.4
003C5572 2019-03-07 23:25:15 20.8 22 21.4
003C5572 2019-03-07 22:53:35 20.8 22 21.3
003C5572 2019-03-07 22:21:56 20.8 22 21.2
003C5572 2019-03-07 21:50:15 20.8 22 21.2
003C5572 2019-03-07 21:18:35 20.9 22 21.1
003C5572 2019-03-07 20:46:55 20.8 21 21.2
003C5572 2019-03-07 20:15:15 20.9 21 21.2
003C5572 2019-03-07 19:43:36 20.9 21 21.1
003C5572 2019-03-07 19:11:58 21 21 21.3
003C5572 2019-03-07 18:40:18 21 21 21.2
003C5572 2019-03-07 18:08:41 21.1 21 21.2
003C5572 2019-03-07 17:37:00 21.1 21 22.2
003C5572 2019-03-07 17:05:21 21.2 21 22.2
003C5572 2019-03-07 16:33:43 21.1 21 22
003C5572 2019-03-07 16:02:04 21.1 20 20.9
003C5572 2019-03-07 15:30:26 21.1 20 20.7
003C5572 2019-03-07 14:58:47 21.1 20 20.6
003C5572 2019-03-07 14:27:07 21.1 20 20.7
003C5572 2019-03-07 13:55:27 21 19 20.8
003C5572 2019-03-07 13:23:46 20.9 19 20.8
003C5572 2019-03-07 12:52:07 20.9 18 20.8
003C5572 2019-03-07 12:20:27 20.9 18 20.8
003C5572 2019-03-07 11:48:46 20.9 18 20.8
003C5572 2019-03-07 11:17:05 20.8 17 20.6
003C5572 2019-03-07 10:45:26 20.8 17 20.6
003C5572 2019-03-07 10:13:47 20.7 16 20.4
003C5572 2019-03-07 09:42:09 20.7 16 20.4
003C5572 2019-03-07 09:10:30 20.7 16 20.4
003C5572 2019-03-07 08:38:50 20.7 15 21.7
003C5572 2019-03-07 08:07:11 20.7 15 21.8
003C5572 2019-03-07 07:35:32 20.7 15 21.7
003C5572 2019-03-07 07:03:51 20.7 14 21.6
003C5572 2019-03-07 06:32:10 20.7 14 21.5
003C5572 2019-03-07 06:00:30 20.7 14 21.5
003C5572 2019-03-07 05:28:51 20.7 14 21.5
003C5572 2019-03-07 04:57:12 20.7 14 22.5
003C5572 2019-03-07 04:25:32 20.7 13 21.4
003C5572 2019-03-07 03:53:52 20.7 13 21.4
003C5572 2019-03-07 03:22:14 20.7 13 21.4
003C5572 2019-03-07 02:50:33 20.7 13 21.3
003C5572 2019-03-07 02:18:54 20.7 13 21.3
003C5572 2019-03-07 01:47:14 20.7 13 21.3
003C5572 2019-03-07 01:15:36 20.7 13 21.3
003C5572 2019-03-07 00:43:56 20.7 13 21.2
003C5572 2019-03-07 00:12:17 20.7 12 21.3
003C5572 2019-03-06 23:40:38 20.7 12 21.2
003C5572 2019-03-06 23:08:59 20.7 12 21
003C5572 2019-03-06 22:37:19 20.7 12 21
003C5572 2019-03-06 22:05:06 20.7 12 22.2
003C5572 2019-03-06 21:33:27 20.7 12 22.2
003C5572 2019-03-06 21:01:48 20.7 12 22.2
003C5572 2019-03-06 20:30:09 20.8 12 22.4
003C5572 2019-03-06 19:58:30 20.8 12 21.3
003C5572 2019-03-06 19:26:50 20.8 12 21.3
003C5572 2019-03-06 18:55:10 20.8 12 21.3
003C5572 2019-03-06 18:23:30 20.8 12 21.3
003C5572 2019-03-06 17:51:52 20.9 12 21.4
003C5572 2019-03-06 17:20:14 20.9 12 21.3
003C5572 2019-03-06 16:48:35 20.9 12 21.3
003C5572 2019-03-06 16:16:55 20.9 11 19.9
003C5572 2019-03-06 15:45:16 20.9 11 20
003C5572 2019-03-06 15:13:37 20.9 12 20.1
003C5572 2019-03-06 14:41:57 20.8 12 20.3
003C5572 2019-03-06 13:38:42 20.6 11 20.4
003C5572 2019-03-06 13:07:02 20.6 11 20.5
003C5572 2019-03-06 12:35:25 20.6 12 20.5
003C5572 2019-03-06 12:03:48 20.6 12 20.4
003C5572 2019-03-06 11:32:08 20.6 12 20.4
003C5572 2019-03-06 11:00:30 20.6 12 20.3
003C5572 2019-03-06 10:28:50 20.5 12 20.4
003C5572 2019-03-06 09:57:16 20.4 12 20.3
003C5572 2019-03-06 09:25:34 20.4 12 20.3
003C5572 2019-03-06 08:53:57 20.4 12 18.5
003C5572 2019-03-06 08:22:18 20.4 12 18.5
003C5572 2019-03-06 07:50:40 20.4 12 18.5
003C5572 2019-03-06 07:19:02 20.5 12 20.3
003C5572 2019-03-06 06:47:24 20.5 13 21.5
003C5572 2019-03-06 06:15:45 20.5 13 21.5
003C5572 2019-03-06 05:44:08 20.5 13 21.4
003C5572 2019-03-06 05:12:29 20.5 13 21.5
003C5572 2019-03-06 04:40:49 20.5 13 21.4
003C5572 2019-03-06 04:09:11 20.5 13 21.3
003C5572 2019-03-06 03:37:32 20.6 13 21.4
003C5572 2019-03-06 03:05:52 20.6 13 21.4
003C5572 2019-03-06 02:34:13 20.6 13 21.4
003C5572 2019-03-06 02:02:33 20.6 13 21.3
003C5572 2019-03-06 01:30:53 20.7 13 21.2
003C5572 2019-03-06 00:59:12 20.7 13 20.9
003C5572 2019-03-06 00:27:32 20.7 13 20.8
003C5572 2019-03-05 23:55:52 20.7 14 20.7
003C5572 2019-03-05 23:24:13 20.7 14 20.7
003C5572 2019-03-05 22:52:35 20.8 14 20.7
003C5572 2019-03-05 22:20:56 20.8 14 20.7
003C5572 2019-03-05 21:49:20 20.8 14 20.6
003C5572 2019-03-05 21:17:43 20.8 14 20.8
003C5572 2019-03-05 20:46:06 20.9 14 20.7
003C5572 2019-03-05 20:14:28 20.9 14 20.9
003C5572 2019-03-05 19:42:15 20.9 14 20.8
003C5572 2019-03-05 19:10:36 20.9 14 22
003C5572 2019-03-05 18:39:01 20.9 14 19.3
003C5572 2019-03-05 18:07:18 20.9 14 19.4
003C5572 2019-03-05 17:35:39 20.9 15 19.4
003C5572 2019-03-05 17:04:00 21 15 19.4
003C5572 2019-03-05 16:32:20 20.9 15 19.4
003C5572 2019-03-05 16:00:41 20.8 16 19.5
003C5572 2019-03-05 15:29:04 20.7 16 19.4
003C5572 2019-03-05 14:57:24 20.6 16 19.6
003C5572 2019-03-05 14:25:47 20.6 17 19.5
003C5572 2019-03-05 13:54:05 20.6 17 19.4
003C5572 2019-03-05 13:22:25 20.5 17 19.7
003C5572 2019-03-05 12:50:46 20.5 17 19.7
003C5572 2019-03-05 12:19:07 20.5 17 21.3
003C5572 2019-03-05 11:47:27 20.5 17 21.3
003C5572 2019-03-05 11:15:48 20.5 17 21.3
003C5572 2019-03-05 10:44:09 20.5 18 21.4
003C5572 2019-03-05 10:12:30 20.5 18 21.4
003C5572 2019-03-05 09:40:51 20.5 18 21.4
003C5572 2019-03-05 09:09:12 20.5 18 21.4
003C5572 2019-03-05 08:37:33 20.5 18 21.3
003C5572 2019-03-05 08:05:54 20.5 18 22.4
003C5572 2019-03-05 07:34:15 20.5 18 22.4
003C5572 2019-03-05 07:02:36 20.5 18 21.3
003C5572 2019-03-05 06:30:56 20.5 18 21.4
003C5572 2019-03-05 05:59:15 20.5 18 21.3
003C5572 2019-03-05 05:27:35 20.5 18 21.2
003C5572 2019-03-05 04:55:55 20.5 18 22.3
003C5572 2019-03-05 04:24:16 20.5 18 22.2
003C5572 2019-03-05 03:52:34 20.5 18 22.2
003C5572 2019-03-05 03:20:55 20.5 18 22.2
003C5572 2019-03-05 02:49:15 20.5 18 22.2
003C5572 2019-03-05 02:17:36 20.5 18 22.2
003C5572 2019-03-05 01:45:57 20.5 18 22.3
003C5572 2019-03-05 01:14:17 20.5 18 22.2
003C5572 2019-03-05 00:42:37 20.5 18 22.1
003C5572 2019-03-05 00:10:58 20.5 18 22.2
003C5572 2019-03-04 23:39:19 20.6 18 22.1
003C5572 2019-03-04 23:07:41 20.6 18 22.1
003C5572 2019-03-04 22:36:02 20.6 18 22
003C5572 2019-03-04 22:04:23 20.6 18 22
003C5572 2019-03-04 21:32:44 20.5 18 21.9
003C5572 2019-03-04 21:01:04 20.5 18 22
003C5572 2019-03-04 20:29:24 20.5 18 22
003C5572 2019-03-04 19:57:44 20.5 18 22
003C5572 2019-03-04 19:26:06 20.5 18 22
003C5572 2019-03-04 18:54:27 20.5 18 20.8
003C5572 2019-03-04 18:22:49 20.5 18 20.8
003C5572 2019-03-04 17:51:10 20.5 18 22
003C5572 2019-03-04 17:18:58 20.5 18 22
003C5572 2019-03-04 16:47:20 20.5 17 21.9
003C5572 2019-03-04 16:15:41 20.5 17 20.7
003C5572 2019-03-04 15:44:02 20.4 17 20.8
003C5572 2019-03-04 15:12:23 20.4 17 20.8
003C5572 2019-03-04 14:40:44 20.4 17 20.9
003C5572 2019-03-04 14:09:03 20.4 17 20.8
003C5572 2019-03-04 13:37:24 20.4 17 20.6
003C5572 2019-03-04 13:05:46 20.3 17 20.6
003C5572 2019-03-04 12:34:08 20.3 17 20.6
003C5572 2019-03-04 12:02:28 20.3 17 20.6
003C5572 2019-03-04 11:30:48 20.2 17 21.9
003C5572 2019-03-04 10:59:08 20.2 17 21.9
003C5572 2019-03-04 10:27:26 20.2 17 20.7
003C5572 2019-03-04 09:55:48 20.1 17 20.7
003C5572 2019-03-04 09:24:06 20.1 17 20.6
003C5572 2019-03-04 08:52:26 20 17 20.6
003C5572 2019-03-04 08:20:45 20.1 17 20.5
003C5572 2019-03-04 07:49:06 20.1 17 20.5
003C5572 2019-03-04 07:17:26 20.1 17 20.5
003C5572 2019-03-04 06:45:45 20.1 17 20.5
003C5572 2019-03-04 06:14:05 20.1 17 20.4
003C5572 2019-03-04 05:42:25 20.1 17 20.6
003C5572 2019-03-04 05:10:46 20.1 17 18.8
003C5572 2019-03-04 04:39:05 20.1 17 19
003C5572 2019-03-04 04:07:27 20.1 17 19
003C5572 2019-03-04 03:35:47 20.1 17 19.2
003C5572 2019-03-04 03:04:06 20.1 17 19.4
003C5572 2019-03-04 02:32:28 20.1 17 19.7
003C5572 2019-03-04 02:00:46 20.1 17 19.6
003C5572 2019-03-04 01:29:06 20.1 17 19.5
003C5572 2019-03-04 00:57:27 20.1 17 19.7
003C5572 2019-03-04 00:25:49 20.1 17 19.7
003C5572 2019-03-03 23:54:10 20.1 17 19.8
003C5572 2019-03-03 23:22:32 20.1 17 19.8
003C5572 2019-03-03 22:50:49 20.1 17 19.9
003C5572 2019-03-03 22:19:10 20.1 17 17.7
003C5572 2019-03-03 21:47:29 20.1 17 17.7
003C5572 2019-03-03 21:15:50 20.1 17 17.7
003C5572 2019-03-03 20:44:10 20.1 17 18
003C5572 2019-03-03 20:12:33 20.2 18 18
003C5572 2019-03-03 19:40:48 20.2 18 18.2
003C5572 2019-03-03 19:09:07 20.2 18 18.3
003C5572 2019-03-03 18:37:27 20.2 18 18.5
003C5572 2019-03-03 18:05:46 20.2 18 18.7
003C5572 2019-03-03 17:34:05 20.2 18 18.8
003C5572 2019-03-03 17:02:25 20.2 18 18.8
003C5572 2019-03-03 16:30:44 20.3 18 18.7
003C5572 2019-03-03 15:59:04 20.3 18 18.8
003C5572 2019-03-03 15:27:24 20.2 18 18.9
003C5572 2019-03-03 14:55:12 20.3 18 19.2
003C5572 2019-03-03 14:23:33 20.2 18 19
003C5572 2019-03-03 13:51:55 20.2 18 18.7
003C5572 2019-03-03 13:20:17 20.2 18 18.8
003C5572 2019-03-03 12:48:38 20.2 18 18.9
003C5572 2019-03-03 12:16:58 20.2 18 18.8
003C5572 2019-03-03 11:45:19 20.2 18 18.7
003C5572 2019-03-03 11:13:43 20.2 18 19
003C5572 2019-03-03 10:41:59 20.2 18 19
003C5572 2019-03-03 10:10:18 20.2 18 18.8
003C5572 2019-03-03 09:38:38 20.2 18 19
003C5572 2019-03-03 09:06:57 20.3 18 19.2
003C5572 2019-03-03 08:35:17 20.3 18 19.2
003C5572 2019-03-03 08:03:37 20.3 18 19.1
003C5572 2019-03-03 07:31:57 20.3 18 19.3
003C5572 2019-03-03 07:00:19 20.3 18 19.3
003C5572 2019-03-03 06:28:36 20.3 18 19.1
003C5572 2019-03-03 05:56:56 20.3 18 19
003C5572 2019-03-03 05:25:18 20.3 18 19
003C5572 2019-03-03 04:53:39 20.3 18 19
003C5572 2019-03-03 04:22:00 20.3 18 18.9
003C5572 2019-03-03 03:50:21 20.3 18 18.8
003C5572 2019-03-03 03:18:42 20.3 18 18.6
003C5572 2019-03-03 02:47:04 20.3 18 18.5
003C5572 2019-03-03 02:15:27 20.3 18 18.2
003C5572 2019-03-03 01:43:50 20.4 18 18.2
003C5572 2019-03-03 01:12:13 20.3 18 18.1
003C5572 2019-03-03 00:40:35 20.3 17 17.9
003C5572 2019-03-03 00:08:57 20.4 17 17.8
003C5572 2019-03-02 23:37:20 20.4 17 18
003C5572 2019-03-02 23:05:42 20.4 17 18.1
003C5572 2019-03-02 22:34:03 20.4 17 17.8
003C5572 2019-03-02 22:02:24 20.4 17 18
003C5572 2019-03-02 21:30:45 20.4 17 18
003C5572 2019-03-02 20:59:07 20.4 17 17.7
003C5572 2019-03-02 20:27:28 20.5 17 17.7
003C5572 2019-03-02 19:55:50 20.5 17 17.6
003C5572 2019-03-02 19:24:12 20.5 17 17.6
003C5572 2019-03-02 18:52:32 20.5 17 17.6
003C5572 2019-03-02 18:20:53 20.5 17 17.8
003C5572 2019-03-02 17:49:16 20.5 17 17.3
003C5572 2019-03-02 17:17:35 20.5 17 17.3
003C5572 2019-03-02 16:45:57 20.5 16 17.3
003C5572 2019-03-02 16:14:17 20.5 16 17.1
003C5572 2019-03-02 15:42:38 20.5 16 17.1
003C5572 2019-03-02 15:11:00 20.4 16 19.6
003C5572 2019-03-02 14:39:23 20.4 16 19.7
003C5572 2019-03-02 14:07:45 20.4 16 19.6
003C5572 2019-03-02 13:36:07 20.4 16 19.5
003C5572 2019-03-02 13:04:30 20.4 16 19.6
003C5572 2019-03-02 12:32:17 20.4 16 19.4
003C5572 2019-03-02 12:00:37 20.4 16 21.1
003C5572 2019-03-02 11:28:59 20.4 16 21.2
003C5572 2019-03-02 10:57:19 20.4 15 21.1
003C5572 2019-03-02 10:25:39 20.4 15 21.1
003C5572 2019-03-02 09:53:58 20.4 15 21.2
003C5572 2019-03-02 09:22:19 20.4 15 21.1
003C5572 2019-03-02 08:50:39 20.4 15 21.1
003C5572 2019-03-02 08:18:59 20.4 15 21.2
003C5572 2019-03-02 07:47:23 20.4 15 21.1
003C5572 2019-03-02 07:15:43 20.4 15 21.2
003C5572 2019-03-02 06:44:05 20.4 15 21.3
003C5572 2019-03-02 06:12:28 20.5 15 21.3
003C5572 2019-03-02 05:40:50 20.4 15 21.2
003C5572 2019-03-02 05:09:12 20.5 15 22.3
003C5572 2019-03-02 04:37:36 20.5 15 22.4
003C5572 2019-03-02 04:06:01 20.5 14 22.4
003C5572 2019-03-02 03:34:23 20.5 14 22.3
003C5572 2019-03-02 03:02:46 20.6 14 22.3
003C5572 2019-03-02 02:31:08 20.6 14 21.2
003C5572 2019-03-02 01:59:31 20.6 14 21.1
003C5572 2019-03-02 01:27:52 20.7 14 21.1
003C5572 2019-03-02 00:56:12 20.7 14 21.1
003C5572 2019-03-02 00:24:34 20.7 14 21.2
003C5572 2019-03-01 23:52:56 20.8 14 21.2
003C5572 2019-03-01 23:21:20 20.8 14 22.3
003C5572 2019-03-01 22:49:43 20.9 14 21.2
003C5572 2019-03-01 22:18:07 21 14 21.1
003C5572 2019-03-01 21:46:30 20.9 14 21
003C5572 2019-03-01 21:14:53 21 14 21
003C5572 2019-03-01 20:43:17 21 14 20.9
003C5572 2019-03-01 20:11:40 21 14 20.8
003C5572 2019-03-01 19:40:03 21 14 20.9
003C5572 2019-03-01 19:08:25 21 14 21
003C5572 2019-03-01 18:36:46 21 14 21
003C5572 2019-03-01 18:05:09 21.1 14 20.9
003C5572 2019-03-01 17:33:32 21.2 14 20.9
003C5572 2019-03-01 17:01:56 21.2 15 20.7
003C5572 2019-03-01 16:30:22 21.1 15 20.7
003C5572 2019-03-01 15:58:44 21.1 15 19
003C5572 2019-03-01 15:27:07 21 15 19.1
003C5572 2019-03-01 14:55:31 20.9 16 19
003C5572 2019-03-01 14:23:54 20.8 16 20.8
003C5572 2019-03-01 13:52:17 20.8 16 20.8
003C5572 2019-03-01 13:20:40 20.8 16 20.8
003C5572 2019-03-01 12:49:03 20.8 16 20.9
003C5572 2019-03-01 12:17:25 20.8 17 20.9
003C5572 2019-03-01 11:45:49 20.8 17 20.8
003C5572 2019-03-01 11:14:10 20.8 17 20.9
003C5572 2019-03-01 10:42:31 20.7 17 20.9
003C5572 2019-03-01 10:10:17 20.6 18 19.5
003C5572 2019-03-01 09:38:37 20.5 18 19.6
003C5572 2019-03-01 09:06:57 20.5 18 19.8
003C5572 2019-03-01 08:35:18 20.5 18 19.9
003C5572 2019-03-01 08:03:39 20.5 19 20
003C5572 2019-03-01 07:32:00 20.6 19 20
003C5572 2019-03-01 07:00:18 20.6 19 20
003C5572 2019-03-01 06:28:38 20.6 19 20.1
003C5572 2019-03-01 05:56:57 20.6 20 20.1
003C5572 2019-03-01 05:25:20 20.6 20 20.1
003C5572 2019-03-01 04:53:37 20.6 20 20.1
003C5572 2019-03-01 04:21:57 20.6 20 20.1
003C5572 2019-03-01 03:50:17 20.6 20 20
003C5572 2019-03-01 03:18:37 20.7 21 20.3
003C5572 2019-03-01 02:46:57 20.7 21 18.2
003C5572 2019-03-01 02:15:17 20.7 21 18.2
003C5572 2019-03-01 01:43:37 20.7 21 18.3
003C5572 2019-03-01 01:11:56 20.7 22 20.2
003C5572 2019-03-01 00:40:16 20.7 22 20.2
003C5572 2019-03-01 00:08:35 20.7 22 21.6
003C5572 2019-02-28 23:36:54 20.8 22 21.5
003C5572 2019-02-28 23:05:14 20.8 23 21.4
003C5572 2019-02-28 22:33:34 20.8 23 21.2
003C5572 2019-02-28 22:01:50 20.8 23 21.3
003C5572 2019-02-28 21:30:10 20.9 23 21.3
003C5572 2019-02-28 20:58:27 20.9 23 21.3
003C5572 2019-02-28 20:26:46 21 24 21.3
003C5572 2019-02-28 19:55:05 21 24 21.2
003C5572 2019-02-28 19:23:24 21.1 24 21.1
003C5572 2019-02-28 18:51:45 21.1 24 21.1
003C5572 2019-02-28 18:20:03 21.2 24 21
003C5572 2019-02-28 17:48:25 21.2 25 21
003C5572 2019-02-28 17:16:42 21.3 25 21.1
003C5572 2019-02-28 16:45:00 21.3 26 21.2
003C5572 2019-02-28 16:13:20 21.3 26 21.3
003C5572 2019-02-28 15:41:38 21.2 25 21.2
003C5572 2019-02-28 15:09:56 21.2 25 21.4
003C5572 2019-02-28 14:38:14 21.2 25 21.4
003C5572 2019-02-28 14:06:34 21.2 25 21.3
003C5572 2019-02-28 13:34:52 21.2 24 21.4
003C5572 2019-02-28 13:03:12 21.1 24 21.5
003C5572 2019-02-28 12:31:32 21.1 24 21.5
003C5572 2019-02-28 11:59:51 21 24 20.3
003C5572 2019-02-28 11:28:12 21 24 20.4
003C5572 2019-02-28 10:56:32 20.9 24 18.5
003C5572 2019-02-28 10:24:53 20.8 23 18.6
003C5572 2019-02-28 09:53:13 20.8 22 18.7
003C5572 2019-02-28 09:21:37 20.7 22 18.8
003C5572 2019-02-28 08:49:55 20.7 22 18.8
003C5572 2019-02-28 08:18:14 20.7 22 18.7
003C5572 2019-02-28 07:46:02 20.7 22 18.7
003C5572 2019-02-28 07:14:22 20.8 22 18.7
003C5572 2019-02-28 06:42:42 20.7 22 18.7
003C5572 2019-02-28 06:11:05 20.8 22 18.6
003C5572 2019-02-28 05:39:20 20.8 22 18.6
003C5572 2019-02-28 05:07:39 20.8 22 18.4
003C5572 2019-02-28 04:35:57 20.8 22 18.2
003C5572 2019-02-28 04:04:16 20.8 22 18
003C5572 2019-02-28 03:32:36 20.8 22 17.7
003C5572 2019-02-28 03:00:57 20.8 22 17.7
003C5572 2019-02-28 02:29:17 20.8 22 17.4
003C5572 2019-02-28 01:57:38 20.8 22 17.7
003C5572 2019-02-28 01:25:58 20.8 22 17.6
003C5572 2019-02-28 00:54:18 20.9 22 17.5
003C5572 2019-02-28 00:22:38 20.9 22 17.2
003C5572 2019-02-27 23:50:57 20.9 23 16.8
003C5572 2019-02-27 23:19:17 21 23 16.4
003C5572 2019-02-27 22:47:37 21 23 16.4
003C5572 2019-02-27 22:15:57 21 23 16.5
003C5572 2019-02-27 21:44:18 21.1 23 16.6
003C5572 2019-02-27 21:12:39 21.1 23 16.7
003C5572 2019-02-27 20:40:59 21.2 23 16.8
003C5572 2019-02-27 20:09:19 21.2 23 16.8
003C5572 2019-02-27 19:37:39 21.3 24 17
003C5572 2019-02-27 19:05:58 21.3 24 17.1
003C5572 2019-02-27 18:34:18 21.4 24 17.2
003C5572 2019-02-27 18:02:38 21.5 24 17.2
003C5572 2019-02-27 17:30:58 21.6 25 17.2
003C5572 2019-02-27 16:59:18 21.6 25 17.3
003C5572 2019-02-27 16:27:39 21.5 26 17.2
003C5572 2019-02-27 15:55:59 21.5 26 17.3
003C5572 2019-02-27 15:24:17 21.4 26 17.5
003C5572 2019-02-27 14:52:38 21.3 26 17.7
003C5572 2019-02-27 14:20:59 21.2 25 17.9
003C5572 2019-02-27 13:49:16 21.2 25 18
003C5572 2019-02-27 13:17:35 21.1 25 17.9
003C5572 2019-02-27 12:14:15 21.1 25 18
003C5572 2019-02-27 11:42:35 21 24 18
003C5572 2019-02-27 11:10:58 21 25 18.2
003C5572 2019-02-27 10:39:16 21 24 18.4
003C5572 2019-02-27 10:07:36 20.9 24 18.5
003C5572 2019-02-27 09:35:58 20.9 24 18.6
003C5572 2019-02-27 09:04:17 20.9 23 18.6
003C5572 2019-02-27 08:32:37 20.9 23 18.6
003C5572 2019-02-27 08:00:57 20.9 23 18.5
003C5572 2019-02-27 07:29:17 20.9 23 18.4
003C5572 2019-02-27 06:57:38 20.9 23 18.3
003C5572 2019-02-27 06:25:58 20.9 23 18.2
003C5572 2019-02-27 05:54:20 20.9 23 18.2
003C5572 2019-02-27 05:22:06 21 23 17.8
003C5572 2019-02-27 04:50:26 21 23 17.7
003C5572 2019-02-27 04:18:48 21 23 17.7
003C5572 2019-02-27 03:47:09 21 23 18
003C5572 2019-02-27 03:15:25 21 23 18
003C5572 2019-02-27 02:43:44 21.1 23 18
003C5572 2019-02-27 02:12:06 21.1 23 18
003C5572 2019-02-27 01:40:25 21.1 23 17.9
003C5572 2019-02-27 01:08:45 21.2 23 18
003C5572 2019-02-27 00:37:05 21.2 23 17.9
003C5572 2019-02-27 00:05:25 21.2 23 17.6
003C5572 2019-02-26 23:33:46 21.3 23 17.6
003C5572 2019-02-26 23:02:06 21.3 24 17.7
003C5572 2019-02-26 22:30:25 21.4 24 19.8
003C5572 2019-02-26 21:58:45 21.4 24 21.3
003C5572 2019-02-26 21:27:07 21.5 24 22.3
003C5572 2019-02-26 20:55:29 21.5 24 23.2
003C5572 2019-02-26 20:23:51 21.6 24 23.2
003C5572 2019-02-26 19:52:15 21.6 24 24
003C5572 2019-02-26 19:20:36 21.6 24 24
003C5572 2019-02-26 18:48:58 21.7 24 24.6
003C5572 2019-02-26 18:17:20 21.7 24 25.2
003C5572 2019-02-26 17:45:42 21.8 24 25.6
003C5572 2019-02-26 17:14:04 21.8 24 26.1
003C5572 2019-02-26 16:42:23 21.7 25 26.5
003C5572 2019-02-26 16:10:43 21.7 25 26.8
003C5572 2019-02-26 15:39:03 21.6 25 27.2
003C5572 2019-02-26 15:07:26 21.5 25 27.5
003C5572 2019-02-26 14:35:45 21.5 24 27.8
003C5572 2019-02-26 14:04:04 21.4 24 28
003C5572 2019-02-26 13:32:26 21.4 24 28.2
003C5572 2019-02-26 13:00:47 21.4 24 28.5
003C5572 2019-02-26 12:29:08 21.3 24 28.7
003C5572 2019-02-26 11:57:29 21.3 24 28.9
003C5572 2019-02-26 11:25:53 21.2 24 29.1
003C5572 2019-02-26 10:54:11 21.1 24 29.3
003C5572 2019-02-26 10:22:34 21 24 29.5
003C5572 2019-02-26 09:50:55 20.9 23 29.7
003C5572 2019-02-26 09:19:16 20.9 23 29.7
003C5572 2019-02-26 08:47:38 20.9 23 29.7
003C5572 2019-02-26 08:16:00 20.9 22 29.7
003C5572 2019-02-26 07:44:21 20.9 22 29.7
003C5572 2019-02-26 07:12:43 20.9 22 29.8
003C5572 2019-02-26 06:41:04 20.9 22 29.8
003C5572 2019-02-26 06:09:25 20.9 22 30
003C5572 2019-02-26 05:37:46 20.9 22 30
003C5572 2019-02-26 05:06:08 20.9 22 30
003C5572 2019-02-26 04:34:30 21 22 29.8
003C5572 2019-02-26 04:02:51 20.9 22 29.6
003C5572 2019-02-26 03:31:12 21 22 29.6
003C5572 2019-02-26 02:59:01 21 22 29.3
003C5572 2019-02-26 02:27:23 21 21 29.1
003C5572 2019-02-26 01:55:44 21 21 28.9
003C5572 2019-02-26 01:24:03 21 21 28.6
003C5572 2019-02-26 00:52:24 21.1 21 28.4
003C5572 2019-02-26 00:20:45 21.1 21 28.2
003C5572 2019-02-25 23:49:05 21.2 21 27.9
003C5572 2019-02-25 23:17:26 21.2 21 27.6
003C5572 2019-02-25 22:45:47 21.2 21 27.3
003C5572 2019-02-25 22:14:07 21.3 21 27
003C5572 2019-02-25 21:42:30 21.3 21 26.7
003C5572 2019-02-25 21:10:51 21.3 21 26.3
003C5572 2019-02-25 20:39:13 21.4 21 26
003C5572 2019-02-25 20:07:36 21.5 21 25.6
003C5572 2019-02-25 19:35:58 21.5 21 25
003C5572 2019-02-25 19:04:22 21.6 21 24.5
003C5572 2019-02-25 18:32:46 21.6 21 24.5
003C5572 2019-02-25 18:01:09 21.6 22 23.9
003C5572 2019-02-25 17:29:32 21.6 22 23.3
003C5572 2019-02-25 16:57:54 21.6 22 22.4
003C5572 2019-02-25 16:26:16 21.6 22 21.5
003C5572 2019-02-25 15:54:38 21.6 22 21.6
003C5572 2019-02-25 15:23:00 21.5 23 21.6
003C5572 2019-02-25 14:51:22 21.4 23 20.2
003C5572 2019-02-25 14:19:46 21.3 22 20.4
003C5572 2019-02-25 13:48:07 21.2 22 20.5
003C5572 2019-02-25 13:16:29 21.1 22 20.5
003C5572 2019-02-25 12:44:50 21 22 20.5
003C5572 2019-02-25 12:13:10 21 22 20.6
003C5572 2019-02-25 11:41:35 20.9 22 20.8
003C5572 2019-02-25 11:09:53 20.9 22 20.7
003C5572 2019-02-25 10:38:15 20.8 22 20.8
003C5572 2019-02-25 10:06:37 20.7 22 20.9
003C5572 2019-02-25 09:34:58 20.6 22 21
003C5572 2019-02-25 09:03:17 20.6 22 21
003C5572 2019-02-25 08:31:36 20.6 22 21
003C5572 2019-02-25 07:59:56 20.6 22 20.9
003C5572 2019-02-25 07:28:17 20.6 22 22
003C5572 2019-02-25 06:56:37 20.6 22 21.9
003C5572 2019-02-25 06:24:59 20.6 22 22.1
003C5572 2019-02-25 05:53:17 20.6 22 22
003C5572 2019-02-25 05:21:38 20.6 22 20.9
003C5572 2019-02-25 04:50:00 20.6 22 20.9
003C5572 2019-02-25 04:18:16 20.6 22 20.7
003C5572 2019-02-25 03:46:36 20.7 22 20.7
003C5572 2019-02-25 03:14:57 20.7 22 20.5
003C5572 2019-02-25 02:43:17 20.7 22 20.5
003C5572 2019-02-25 02:11:38 20.7 22 20.5
003C5572 2019-02-25 01:39:58 20.7 22 20.5
003C5572 2019-02-25 01:08:16 20.9 22 21.7
003C5572 2019-02-25 01:07:03 20.7 22 21.7
003C5572 2019-02-25 00:35:22 20.7 23 21.7
003C5572 2019-02-25 00:03:46 20.7 23 21.8
003C5572 2019-02-24 23:32:03 20.7 23 21.8
003C5572 2019-02-24 23:00:23 20.7 23 21.7
003C5572 2019-02-24 22:28:44 20.8 23 21.8
003C5572 2019-02-24 21:57:04 20.8 23 21.9
003C5572 2019-02-24 21:25:24 20.8 23 21.9
003C5572 2019-02-24 20:53:43 20.8 23 22.8
003C5572 2019-02-24 20:22:04 20.8 23 22.8
003C5572 2019-02-24 19:50:21 20.8 22 22.8
003C5572 2019-02-24 19:18:42 20.8 22 22.9
003C5572 2019-02-24 18:47:01 20.8 22 22
003C5572 2019-02-24 18:15:22 20.8 22 22.1
003C5572 2019-02-24 17:43:43 20.8 22 22.1
003C5572 2019-02-24 17:12:04 20.8 22 22.1
003C5572 2019-02-24 16:40:24 20.8 22 22.1
003C5572 2019-02-24 16:08:46 20.8 22 22.1
003C5572 2019-02-24 15:37:09 20.8 22 22.1
003C5572 2019-02-24 15:05:33 20.8 22 22.1
003C5572 2019-02-24 14:33:52 20.8 22 22.2
003C5572 2019-02-24 14:02:10 20.8 21 22.2
003C5572 2019-02-24 13:30:30 20.8 21 22.3
003C5572 2019-02-24 12:58:53 20.8 21 22.3
003C5572 2019-02-24 12:27:13 20.8 21 21.2
003C5572 2019-02-24 11:55:33 20.8 21 21.2
003C5572 2019-02-24 11:23:51 20.8 21 21.1
003C5572 2019-02-24 10:52:13 20.8 21 21
003C5572 2019-02-24 10:20:33 20.8 21 21.1
003C5572 2019-02-24 09:48:51 20.8 21 21
003C5572 2019-02-24 09:17:11 20.8 21 20.9
003C5572 2019-02-24 08:45:29 20.8 21 20.8
003C5572 2019-02-24 08:13:47 20.8 20 20.8
003C5572 2019-02-24 07:42:05 20.8 20 19.2
003C5572 2019-02-24 07:10:24 20.8 20 19.2
003C5572 2019-02-24 06:38:44 20.8 20 19.2
003C5572 2019-02-24 06:07:03 20.9 20 19.1
003C5572 2019-02-24 05:35:22 20.9 20 18.9
003C5572 2019-02-24 05:03:41 20.9 20 18.9
003C5572 2019-02-24 04:32:00 20.9 20 18.8
003C5572 2019-02-24 04:00:17 20.9 20 18.9
003C5572 2019-02-24 03:28:33 20.9 20 19
003C5572 2019-02-24 02:56:51 20.9 20 18.9
003C5572 2019-02-24 02:25:08 20.9 20 19
003C5572 2019-02-24 01:53:28 21 19 18.9
003C5572 2019-02-24 01:21:46 21 19 18.8
003C5572 2019-02-24 00:50:05 21 19 18.6
003C5572 2019-02-24 00:18:26 21 19 18.4
003C5572 2019-02-23 23:46:46 21 19 18.5
003C5572 2019-02-23 23:15:04 21 19 18.7
003C5572 2019-02-23 22:42:57 21.1 19 18.8
003C5572 2019-02-23 22:11:17 21.1 18 18.9
003C5572 2019-02-23 21:39:36 21.1 18 18.8
003C5572 2019-02-23 21:07:54 21.2 18 18.7
003C5572 2019-02-23 20:36:15 21.2 18 18.7
003C5572 2019-02-23 20:04:33 21.2 18 18.5
003C5572 2019-02-23 19:32:53 21.2 17 18.3
003C5572 2019-02-23 19:01:13 21.2 17 18.4
003C5572 2019-02-23 18:29:32 21.2 17 18.5
003C5572 2019-02-23 17:57:51 21.2 17 18.3
003C5572 2019-02-23 17:26:12 21.2 17 18.3
003C5572 2019-02-23 16:54:34 21.2 16 18.3
003C5572 2019-02-23 16:22:56 21.1 16 18.3
003C5572 2019-02-23 15:51:18 21.1 16 18.2
003C5572 2019-02-23 15:19:38 21 16 17.9
003C5572 2019-02-23 14:48:03 20.9 16 17.6
003C5572 2019-02-23 14:16:20 20.9 15 19.9
003C5572 2019-02-23 13:44:41 20.9 15 19.8
003C5572 2019-02-23 13:12:59 20.9 15 19.8
003C5572 2019-02-23 12:41:19 20.9 15 19.7
003C5572 2019-02-23 12:09:42 20.9 15 19.7
003C5572 2019-02-23 11:38:03 20.9 15 19.8
003C5572 2019-02-23 11:06:23 20.8 14 19.7
003C5572 2019-02-23 10:34:44 20.8 14 19.5
003C5572 2019-02-23 10:03:03 20.8 14 19.4
003C5572 2019-02-23 09:31:23 20.9 14 19.2
003C5572 2019-02-23 08:59:43 20.9 14 19.1
003C5572 2019-02-23 08:28:04 20.8 14 19.1
003C5572 2019-02-23 07:56:26 20.8 13 19.2
003C5572 2019-02-23 07:24:45 20.8 13 19.2
003C5572 2019-02-23 06:53:05 20.8 13 19.2
003C5572 2019-02-23 06:21:25 20.8 13 19.4
003C5572 2019-02-23 05:49:43 20.8 13 19.2
003C5572 2019-02-23 05:18:03 20.8 13 19
003C5572 2019-02-23 04:46:22 20.8 13 19.1
003C5572 2019-02-23 04:14:43 20.8 12 19.2
003C5572 2019-02-23 03:43:03 20.8 12 19.1
003C5572 2019-02-23 03:11:20 20.8 12 19
003C5572 2019-02-23 02:39:39 20.8 12 19.1
003C5572 2019-02-23 02:08:00 20.9 12 19.1
003C5572 2019-02-23 01:36:21 20.9 12 19.1
003C5572 2019-02-23 01:04:41 20.9 12 16.4
003C5572 2019-02-23 00:33:02 20.9 12 16.6
003C5572 2019-02-23 00:01:22 20.9 12 16.9
003C5572 2019-02-22 23:29:42 21 12 17.1
003C5572 2019-02-22 22:58:05 21 12 17.2
003C5572 2019-02-22 22:26:27 21 12 17.3
003C5572 2019-02-22 21:54:48 21.1 12 17.5
003C5572 2019-02-22 21:23:10 21.1 12 17.6
003C5572 2019-02-22 20:51:30 21.1 12 17.9
003C5572 2019-02-22 20:19:18 21.1 12 18.4
003C5572 2019-02-22 20:08:39 21.1 12 18.2
003C5572 2019-02-22 19:58:00 21.2 12 18.3
003C5572 2019-02-22 19:47:22 21.1 12 18.3
003C5572 2019-02-22 19:36:42 21.2 12 18.4
003C5572 2019-02-22 19:26:04 21.2 12 18.2
003C5572 2019-02-22 19:15:26 21.2 12 18.4
003C5572 2019-02-22 19:04:47 21.2 12 18.6
003C5572 2019-02-22 18:54:09 21.2 12 18.5
003C5572 2019-02-22 18:43:30 21.2 12 18.3
003C5572 2019-02-22 18:32:51 21.2 12 18.2
003C5572 2019-02-22 18:22:12 21.2 12 18.4
003C5572 2019-02-22 18:11:32 21.2 12 18.1
003C5572 2019-02-22 18:00:53 21.2 12 18.1
003C5572 2019-02-22 17:50:14 21.2 12 18.1
003C5572 2019-02-22 17:39:35 21.2 12 18
003C5572 2019-02-22 17:28:56 21.2 12 17.7
003C5572 2019-02-22 17:18:17 21.2 12 17.4
003C5572 2019-02-22 17:07:37 21.2 12 17.5
003C5572 2019-02-22 16:56:59 21.1 12 17.3
003C5572 2019-02-22 16:46:20 21.1 12 17.3
003C5572 2019-02-22 16:35:41 21.1 12 17
003C5572 2019-02-22 16:25:02 21.1 12 16.8
003C5572 2019-02-22 16:14:23 21.1 12 16.6
003C5572 2019-02-22 16:03:44 21.1 12 16.3
003C5572 2019-02-22 15:53:05 21 12 16.3
003C5572 2019-02-22 15:42:28 21 12 16.4
003C5572 2019-02-22 15:31:49 21 12 19
003C5572 2019-02-22 15:21:10 20.9 12 19.1
003C5572 2019-02-22 15:10:29 20.9 12 19
003C5572 2019-02-22 14:59:51 20.9 12 19.3
003C5572 2019-02-22 14:49:12 20.9 12 19.2
003C5572 2019-02-22 14:38:34 20.9 12 19
003C5572 2019-02-22 14:27:56 20.8 12 19.1
003C5572 2019-02-22 14:17:17 20.8 13 19.1
003C5572 2019-02-22 13:56:01 20.8 13 19.2
003C5572 2019-02-22 13:45:20 20.8 13 19.2
003C5572 2019-02-22 13:34:42 20.8 13 19.2
003C5572 2019-02-22 13:24:03 20.7 13 19.2
003C5572 2019-02-22 13:13:24 20.8 13 19.3
003C5572 2019-02-22 13:02:45 20.7 13 19.3
003C5572 2019-02-22 12:52:06 20.7 13 19.4
003C5572 2019-02-22 12:41:29 20.7 13 19.7
003C5572 2019-02-22 12:30:48 20.7 13 19.6
003C5572 2019-02-22 12:20:09 20.7 13 19.6
003C5572 2019-02-22 12:09:30 20.7 13 19.6
003C5572 2019-02-22 11:58:52 20.6 13 19.7
003C5572 2019-02-22 11:48:13 20.6 13 19.8
003C5572 2019-02-22 11:37:33 20.6 13 19.7
003C5572 2019-02-22 11:26:22 20.6 13 19.6
003C5572 2019-02-22 10:54:43 20.5 13 19.6
003C5572 2019-02-22 10:23:04 20.5 13 17.5
003C5572 2019-02-22 09:51:24 20.5 13 17.4
003C5572 2019-02-22 09:19:46 20.4 13 17.5
003C5572 2019-02-22 08:48:08 20.5 13 17.2
003C5572 2019-02-22 08:16:35 20.5 13 17.1
003C5572 2019-02-22 07:44:54 20.5 13 17.2
003C5572 2019-02-22 07:13:19 20.5 13 17
003C5572 2019-02-22 06:41:41 20.5 13 17
003C5572 2019-02-22 06:10:05 20.5 13 16.9
003C5572 2019-02-22 05:38:27 20.5 13 16.7
003C5572 2019-02-22 05:06:49 20.5 13 16.6
003C5572 2019-02-22 04:35:12 20.6 13 16.6
003C5572 2019-02-22 04:03:34 20.6 13 16.6
003C5572 2019-02-22 03:31:55 20.6 13 19.3
003C5572 2019-02-22 03:00:16 20.6 13 20.9
003C5572 2019-02-22 02:28:36 20.6 13 21.9
003C5572 2019-02-22 01:56:55 20.6 13 22.9
003C5572 2019-02-22 01:25:14 20.7 13 23.7
003C5572 2019-02-22 00:53:34 20.7 14 24.3
003C5572 2019-02-22 00:21:54 20.7 14 24.3
003C5572 2019-02-21 23:50:13 20.7 14 24.3
003C5572 2019-02-21 23:18:34 20.7 14 24.2
003C5572 2019-02-21 22:46:57 20.8 14 24.2
003C5572 2019-02-21 22:15:17 20.8 14 24.2
003C5572 2019-02-21 21:43:39 20.8 14 24.2
003C5572 2019-02-21 21:12:00 20.9 14 24.1
003C5572 2019-02-21 20:40:23 20.9 14 24.1
003C5572 2019-02-21 20:08:44 20.9 14 24.1
003C5572 2019-02-21 19:37:08 21 14 24.1
003C5572 2019-02-21 19:05:31 21 14 24.1
003C5572 2019-02-21 18:33:53 21.1 14 24.1
003C5572 2019-02-21 18:02:13 21.1 14 24
003C5572 2019-02-21 17:30:34 21.1 15 24
003C5572 2019-02-21 16:58:53 21 15 24.1
003C5572 2019-02-21 16:27:13 20.8 15 24.1
003C5572 2019-02-21 15:55:33 20.7 14 24.1
003C5572 2019-02-21 15:23:57 20.7 15 24.1
003C5572 2019-02-21 14:20:37 20.6 15 24.1
003C5572 2019-02-21 13:48:56 20.6 16 23.4
003C5572 2019-02-21 13:17:17 20.6 16 22.6
003C5572 2019-02-21 12:45:38 20.6 16 21.6
003C5572 2019-02-21 12:14:03 20.6 17 20.2
003C5572 2019-02-21 11:42:22 20.6 17 18.1
003C5572 2019-02-21 11:10:46 20.6 17 13.9
003C5572 2019-02-21 10:39:05 20.6 17 14.1
003C5572 2019-02-21 09:35:48 20.8 18 14.2
003C5572 2019-02-21 09:34:35 20.6 18 14.7
003C5572 2019-02-21 09:02:52 20.6 18 14.8
003C5572 2019-02-21 08:31:12 20.6 18 14.6
003C5572 2019-02-21 07:59:34 20.6 18 14.6
003C5572 2019-02-21 07:27:56 20.6 19 14.6
003C5572 2019-02-21 06:56:18 20.6 19 14.6
003C5572 2019-02-21 06:24:39 20.7 19 14.6
003C5572 2019-02-21 05:53:01 20.7 19 15
003C5572 2019-02-21 05:21:21 20.7 19 15
003C5572 2019-02-21 04:49:43 20.7 19 15.1
003C5572 2019-02-21 04:18:04 20.7 19 15.2
003C5572 2019-02-21 03:46:25 20.7 19 15.3
003C5572 2019-02-21 03:14:46 20.7 20 18.5
003C5572 2019-02-21 02:43:07 20.7 20 18.4
003C5572 2019-02-21 02:11:29 20.7 20 20.3
003C5572 2019-02-21 01:39:52 20.7 20 21.6
003C5572 2019-02-21 01:08:08 20.7 20 21.6
003C5572 2019-02-21 00:36:27 20.7 20 21.6
003C5572 2019-02-21 00:04:47 20.8 20 22.7
003C5572 2019-02-20 23:33:08 20.7 20 23.5
003C5572 2019-02-20 23:01:30 20.7 21 23.5
003C5572 2019-02-20 22:29:47 20.8 21 23.5
003C5572 2019-02-20 21:58:07 20.8 21 23.6
003C5572 2019-02-20 21:26:30 20.8 21 23.6
003C5572 2019-02-20 20:54:49 20.8 21 23.6
003C5572 2019-02-20 19:51:28 20.8 21 23.5
003C5572 2019-02-20 19:19:50 20.8 22 23.6
003C5572 2019-02-20 18:48:07 20.8 22 23.7
003C5572 2019-02-20 18:16:26 20.8 22 23.7
003C5572 2019-02-20 17:44:45 20.9 22 23.7
003C5572 2019-02-20 17:13:05 20.8 23 23.7
003C5572 2019-02-20 16:41:25 20.8 23 23.8
003C5572 2019-02-20 16:09:47 20.8 23 23.7
003C5572 2019-02-20 15:38:07 20.8 23 23.7
003C5572 2019-02-20 15:06:28 20.8 24 23.7